M I D A S
Marine Information and Data Acquisition System
Tripno 1551 of the Zeeleeuw from 2008-04-17 07:09:46 to 2008-04-17 12:08:12
Back to CruiseResearch ActivitiesStationsMapUnderway DataData graphs

EquipmentUnitsComment
TimeDGPSUTC
LatitudeDGPSDM.mWGS84
LongitudeDGPSDM.mWGS84
TemperatureSBE03/SBE38deg celciusITS90
ConductivitySBE21S/mITS90
SalinitySBE21 Practical Salinity Units
ChlorophylAChelsea fluorimeterg/lCalibrated in Aceton
Missing or incorrect values are displayed as -999
Sea surface data collected by the RV Zeeleeuw from 2008-04-17 07:09:16 to 2008-04-17 12:17:56
                                                                                    Next 1000 lines
Time Latitude Longitude Temperature Conductivity Salinity ChlorophylA
2008-04-17 07:09:26 51°13.665 2°55.955 16.8945 0.008661 0.048753 -1.801521
2008-04-17 07:09:31 51°13.665 2°55.955 16.9104 0.008661 0.048753 -1.801521
2008-04-17 07:09:36 51°13.665 2°55.955 16.9043 0.008661 0.048753 -1.801521
2008-04-17 07:09:41 51°13.664 2°55.955 16.9255 0.008661 0.048754 -1.801521
2008-04-17 07:09:46 51°13.664 2°55.955 16.9297 0.008661 0.048754 -1.766697
2008-04-17 07:09:51 51°13.664 2°55.955 16.8745 0.008661 0.048754 -1.801521
2008-04-17 07:09:56 51°13.664 2°55.955 16.8653 0.008661 0.048754 -1.801521
2008-04-17 07:10:01 51°13.664 2°55.955 16.813 0.008661 0.048755 -1.801521
2008-04-17 07:10:06 51°13.665 2°55.954 16.7875 0.008661 0.048755 -1.801521
2008-04-17 07:10:11 51°13.665 2°55.953 16.6664 0.008661 0.048755 -1.801521
2008-04-17 07:10:16 51°13.666 2°55.95 16.422 0.008661 0.048756 -1.801521
2008-04-17 07:10:21 51°13.667 2°55.947 16.7758 0.008661 0.048756 -1.766697
2008-04-17 07:10:26 51°13.668 2°55.943 16.8417 0.008661 0.048756 -1.766697
2008-04-17 07:10:31 51°13.67 2°55.937 16.7889 0.008661 0.048756 -1.801521
2008-04-17 07:10:36 51°13.671 2°55.932 16.8089 0.008661 0.048756 -1.801521
2008-04-17 07:10:41 51°13.673 2°55.925 16.7983 0.008661 0.048757 -1.801521
2008-04-17 07:10:46 51°13.674 2°55.918 16.8139 0.008661 0.048757 -1.801521
2008-04-17 07:10:51 51°13.676 2°55.91 16.8661 0.008661 0.048757 -1.766697
2008-04-17 07:10:56 51°13.678 2°55.902 16.8794 0.008661 0.048757 -1.766697
2008-04-17 07:11:01 51°13.679 2°55.893 16.8696 0.008661 0.048758 -1.766697
2008-04-17 07:11:06 51°13.681 2°55.884 16.8957 0.008661 0.048758 -1.801521
2008-04-17 07:11:11 51°13.682 2°55.875 16.8876 0.008661 0.048758 -1.801521
2008-04-17 07:11:16 51°13.684 2°55.865 16.8649 0.008661 0.048758 -1.801521
2008-04-17 07:11:21 51°13.686 2°55.855 16.8558 0.008661 0.048758 -1.766697
2008-04-17 07:11:26 51°13.687 2°55.845 16.8678 0.008661 0.048758 -1.766697
2008-04-17 07:11:31 51°13.689 2°55.836 16.8819 0.008661 0.048759 -1.766697
2008-04-17 07:11:36 51°13.69 2°55.826 16.8901 0.008661 0.048759 -1.766697
2008-04-17 07:11:41 51°13.692 2°55.817 16.9068 0.008661 0.048759 -1.801521
2008-04-17 07:11:46 51°13.693 2°55.808 16.8996 0.008661 0.048759 -1.801521
2008-04-17 07:11:51 51°13.695 2°55.8 16.9007 0.008661 0.048759 -1.801521
2008-04-17 07:11:56 51°13.696 2°55.792 16.8874 0.008661 0.048759 -1.801521
2008-04-17 07:12:01 51°13.697 2°55.785 16.8418 0.008661 0.04876 -1.801521
2008-04-17 07:12:06 51°13.698 2°55.779 16.8852 0.008661 0.04876 -1.801521
2008-04-17 07:12:11 51°13.699 2°55.776 16.9175 0.008661 0.04876 -1.801521
2008-04-17 07:12:16 51°13.699 2°55.774 16.9553 0.008661 0.04876 -1.801521
2008-04-17 07:12:21 51°13.7 2°55.774 16.96 0.008661 0.048762 -1.801521
2008-04-17 07:12:26 51°13.7 2°55.775 16.8428 0.008661 0.048762 -1.801521
2008-04-17 07:12:31 51°13.701 2°55.776 16.6844 0.008661 0.048764 -1.801521
2008-04-17 07:12:36 51°13.701 2°55.777 16.6079 0.008661 0.048764 -1.801521
2008-04-17 07:12:41 51°13.701 2°55.777 16.6165 0.008661 0.048766 -1.801521
2008-04-17 07:12:46 51°13.701 2°55.775 16.7016 0.008763 0.049277 -1.801521
2008-04-17 07:12:51 51°13.701 2°55.773 16.7074 0.008763 0.049278 -1.801521
2008-04-17 07:12:56 51°13.7 2°55.77 16.7237 0.008763 0.049278 -1.801521
2008-04-17 07:13:01 51°13.698 2°55.766 16.7445 0.008763 0.049277 -1.801521
2008-04-17 07:13:06 51°13.697 2°55.762 16.7713 0.008763 0.049277 -1.801521
2008-04-17 07:13:11 51°13.695 2°55.757 16.8792 0.008763 0.049277 -1.801521
2008-04-17 07:13:16 51°13.693 2°55.752 16.867 0.008661 0.048766 -1.801521
2008-04-17 07:13:21 51°13.691 2°55.748 16.8451 0.008661 0.048766 -1.801521
2008-04-17 07:13:26 51°13.69 2°55.744 16.8229 0.008661 0.048766 -1.801521
2008-04-17 07:13:31 51°13.689 2°55.741 16.8506 0.008661 0.048765 -1.801521
2008-04-17 07:13:36 51°13.688 2°55.739 16.9147 0.008661 0.048765 -1.801521
2008-04-17 07:13:41 51°13.689 2°55.739 16.929 0.008661 0.048765 -1.801521
2008-04-17 07:13:46 51°13.69 2°55.739 16.9388 0.008661 0.048766 -1.801521
2008-04-17 07:13:51 51°13.693 2°55.74 16.9659 0.008661 0.048767 -1.801521
2008-04-17 07:13:56 51°13.696 2°55.74 16.9802 0.008661 0.048767 -1.801521
2008-04-17 07:14:01 51°13.701 2°55.739 16.9214 0.008661 0.048769 -1.801521
2008-04-17 07:14:06 51°13.705 2°55.737 16.8853 0.008661 0.04877 -1.801521
2008-04-17 07:14:11 51°13.709 2°55.735 16.8083 0.008661 0.048772 -1.801521
2008-04-17 07:14:16 51°13.713 2°55.733 16.8192 0.008661 0.048772 -1.801521
2008-04-17 07:14:21 51°13.717 2°55.73 16.7583 0.008661 0.048771 -1.801521
2008-04-17 07:14:26 51°13.722 2°55.727 16.7143 0.008661 0.048771 -1.801521
2008-04-17 07:14:31 51°13.726 2°55.723 16.7047 0.008661 0.048771 -1.801521
2008-04-17 07:14:36 51°13.73 2°55.72 16.7076 0.008661 0.048771 -1.801521
2008-04-17 07:14:41 51°13.734 2°55.716 16.6896 0.008661 0.048771 -1.801521
2008-04-17 07:14:46 51°13.738 2°55.712 16.7112 0.008661 0.048771 -1.801521
2008-04-17 07:14:51 51°13.743 2°55.708 16.7416 0.008661 0.04877 -1.766697
2008-04-17 07:14:56 51°13.748 2°55.704 16.7328 0.008661 0.04877 -1.766697
2008-04-17 07:15:01 51°13.753 2°55.699 16.7383 0.008661 0.04877 -1.801521
2008-04-17 07:15:06 51°13.759 2°55.694 16.7286 0.008661 0.04877 -1.801521
2008-04-17 07:15:11 51°13.764 2°55.689 16.695 0.008661 0.04877 -1.801521
2008-04-17 07:15:16 51°13.77 2°55.684 16.6879 0.008661 0.048771 -1.801521
2008-04-17 07:15:21 51°13.776 2°55.678 16.6806 0.008661 0.048771 -1.801521
2008-04-17 07:15:26 51°13.782 2°55.673 16.6954 0.008661 0.048771 -1.801521
2008-04-17 07:15:31 51°13.787 2°55.668 16.6925 0.008661 0.048772 -1.801521
2008-04-17 07:15:36 51°13.793 2°55.663 16.7006 0.008661 0.048772 -1.801521
2008-04-17 07:15:41 51°13.799 2°55.658 16.7317 0.008661 0.048772 -1.801521
2008-04-17 07:15:46 51°13.806 2°55.654 16.7502 0.008661 0.048772 -1.801521
2008-04-17 07:15:51 51°13.812 2°55.649 16.7596 0.008661 0.048773 -1.801521
2008-04-17 07:15:56 51°13.818 2°55.644 16.7647 0.008661 0.048773 -1.801521
2008-04-17 07:16:01 51°13.824 2°55.639 16.7702 0.008661 0.048773 -1.766697
2008-04-17 07:16:06 51°13.831 2°55.634 16.7765 0.008661 0.048774 -1.801521
2008-04-17 07:16:11 51°13.838 2°55.629 16.7751 0.008661 0.048774 -1.801521
2008-04-17 07:16:16 51°13.845 2°55.623 16.7715 0.008661 0.048774 -1.801521
2008-04-17 07:16:21 51°13.852 2°55.618 16.7723 0.008661 0.048775 -1.801521
2008-04-17 07:16:26 51°13.859 2°55.613 16.7649 0.008661 0.048775 -1.801521
2008-04-17 07:16:31 51°13.866 2°55.607 16.7729 0.008661 0.048776 -1.801521
2008-04-17 07:16:36 51°13.873 2°55.602 16.7506 0.008661 0.048776 -1.801521
2008-04-17 07:16:40 51°13.878 2°55.598 16.7535 0.008661 0.048776 -1.801521
2008-04-17 07:16:46 51°13.887 2°55.591 16.7256 0.008661 0.048777 -1.801521
2008-04-17 07:16:51 51°13.894 2°55.585 16.7344 0.008661 0.048777 -1.801521
2008-04-17 07:16:56 51°13.902 2°55.58 16.7067 0.008661 0.048777 -1.801521
2008-04-17 07:17:01 51°13.909 2°55.575 16.7287 0.008661 0.048777 -1.801521
2008-04-17 07:17:06 51°13.916 2°55.569 16.7144 0.008661 0.048778 -1.801521
2008-04-17 07:17:11 51°13.923 2°55.564 16.7344 0.008661 0.048778 -1.801521
2008-04-17 07:17:16 51°13.929 2°55.559 16.7441 0.008661 0.048778 -1.801521
2008-04-17 07:17:21 51°13.936 2°55.554 16.7469 0.008661 0.048779 -1.801521
2008-04-17 07:17:26 51°13.943 2°55.549 16.7511 0.008661 0.048779 -1.801521
2008-04-17 07:17:31 51°13.949 2°55.544 16.7517 0.008661 0.048779 -1.801521
2008-04-17 07:17:36 51°13.956 2°55.539 16.7556 0.008661 0.04878 -1.801521
2008-04-17 07:17:41 51°13.962 2°55.534 16.7627 0.008661 0.04878 -1.801521
2008-04-17 07:17:46 51°13.968 2°55.53 16.7686 0.008661 0.04878 -1.801521
2008-04-17 07:17:51 51°13.974 2°55.525 16.7719 0.008661 0.04878 -1.766697
2008-04-17 07:17:56 51°13.98 2°55.521 16.7785 0.008661 0.04878 -1.766697
2008-04-17 07:18:01 51°13.987 2°55.516 16.7831 0.008661 0.048781 -1.801521
2008-04-17 07:18:06 51°13.993 2°55.512 16.7804 0.008661 0.048781 -1.801521
2008-04-17 07:18:11 51°13.999 2°55.508 16.7771 0.008661 0.048782 -1.801521
2008-04-17 07:18:16 51°14.005 2°55.504 16.7783 0.008661 0.048782 -1.801521
2008-04-17 07:18:21 51°14.011 2°55.5 16.782 0.008661 0.048783 -1.766697
2008-04-17 07:18:26 51°14.016 2°55.495 16.7998 0.008661 0.048783 -1.766697
2008-04-17 07:18:31 51°14.022 2°55.491 16.8173 0.008661 0.048783 -1.801521
2008-04-17 07:18:36 51°14.028 2°55.487 16.8128 0.008661 0.048784 -1.801521
2008-04-17 07:18:41 51°14.034 2°55.482 16.8288 0.008661 0.048784 -1.801521
2008-04-17 07:18:46 51°14.04 2°55.478 16.828 0.008661 0.048784 -1.801521
2008-04-17 07:18:51 51°14.046 2°55.472 16.8229 0.008661 0.048785 -1.801521
2008-04-17 07:18:56 51°14.052 2°55.466 16.8182 0.008661 0.048785 -1.801521
2008-04-17 07:19:01 51°14.058 2°55.461 16.8134 0.008661 0.048785 -1.801521
2008-04-17 07:19:06 51°14.064 2°55.456 16.8101 0.008661 0.048785 -1.801521
2008-04-17 07:19:11 51°14.071 2°55.452 16.8101 0.008661 0.048785 -1.801521
2008-04-17 07:19:16 51°14.077 2°55.447 16.8339 0.008661 0.048786 -1.801521
2008-04-17 07:19:21 51°14.083 2°55.442 16.8569 0.008661 0.048786 -1.801521
2008-04-17 07:19:26 51°14.09 2°55.437 16.8562 0.008661 0.048786 -1.801521
2008-04-17 07:19:31 51°14.096 2°55.431 16.8319 0.008661 0.048787 -1.801521
2008-04-17 07:19:36 51°14.103 2°55.425 16.8011 0.008661 0.048787 -1.801521
2008-04-17 07:19:41 51°14.109 2°55.42 16.7921 0.008661 0.048787 -1.801521
2008-04-17 07:19:46 51°14.116 2°55.415 16.7694 0.008661 0.048787 -1.801521
2008-04-17 07:19:51 51°14.123 2°55.409 16.7994 0.008661 0.048788 -1.801521
2008-04-17 07:19:56 51°14.13 2°55.403 16.8879 0.008661 0.048788 -1.801521
2008-04-17 07:20:01 51°14.137 2°55.396 16.9084 0.008661 0.048788 -1.801521
2008-04-17 07:20:06 51°14.145 2°55.39 16.9151 0.008661 0.048788 -1.801521
2008-04-17 07:20:11 51°14.153 2°55.383 16.8889 0.008661 0.048789 -1.801521
2008-04-17 07:20:16 51°14.162 2°55.376 16.8727 0.008661 0.048789 -1.801521
2008-04-17 07:20:21 51°14.17 2°55.368 16.8286 0.008661 0.04879 -1.801521
2008-04-17 07:20:26 51°14.179 2°55.359 16.8452 0.008661 0.04879 -1.801521
2008-04-17 07:20:31 51°14.188 2°55.35 16.8374 0.008661 0.04879 -1.801521
2008-04-17 07:20:36 51°14.197 2°55.341 16.8041 0.008661 0.04879 -1.801521
2008-04-17 07:20:41 51°14.207 2°55.331 16.839 0.008661 0.048791 -1.801521
2008-04-17 07:20:46 51°14.215 2°55.32 16.8476 0.008661 0.048791 -1.801521
2008-04-17 07:20:51 51°14.224 2°55.308 16.8306 0.008661 0.048792 -1.801521
2008-04-17 07:20:56 51°14.233 2°55.296 16.77 0.008661 0.048792 -1.801521
2008-04-17 07:21:01 51°14.241 2°55.284 16.8077 0.008661 0.048792 -1.801521
2008-04-17 07:21:06 51°14.25 2°55.271 16.7749 0.008661 0.048792 -1.766697
2008-04-17 07:21:11 51°14.258 2°55.258 16.9155 0.008661 0.048793 -1.801521
2008-04-17 07:21:16 51°14.266 2°55.244 16.7963 0.008661 0.048793 -1.801521
2008-04-17 07:21:21 51°14.273 2°55.23 16.6848 0.008661 0.048793 -1.801521
2008-04-17 07:21:26 51°14.281 2°55.215 16.7575 0.008661 0.048793 -1.801521
2008-04-17 07:21:31 51°14.288 2°55.201 16.845 0.008661 0.048793 -1.801521
2008-04-17 07:21:36 51°14.295 2°55.186 16.6981 0.008661 0.048794 -1.801521
2008-04-17 07:21:40 51°14.301 2°55.174 16.6974 0.008661 0.048795 -1.801521
2008-04-17 07:21:46 51°14.309 2°55.156 16.6199 0.008661 0.048795 -1.801521
2008-04-17 07:21:51 51°14.317 2°55.141 16.6906 0.008661 0.048795 -1.801521
2008-04-17 07:21:56 51°14.324 2°55.126 16.6608 0.008661 0.048795 -1.801521
2008-04-17 07:22:01 51°14.331 2°55.111 16.715 0.008661 0.048795 -1.801521
2008-04-17 07:22:06 51°14.339 2°55.096 16.7114 0.008661 0.048795 -1.801521
2008-04-17 07:22:11 51°14.347 2°55.082 16.6076 0.008661 0.048795 -1.801521
2008-04-17 07:22:16 51°14.354 2°55.067 16.5824 0.008763 0.049308 -1.801521
2008-04-17 07:22:21 51°14.361 2°55.052 16.5695 0.008763 0.049308 -1.801521
2008-04-17 07:22:26 51°14.369 2°55.037 16.5821 0.008763 0.049308 -1.801521
2008-04-17 07:22:31 51°14.376 2°55.021 16.7591 0.008763 0.049308 -1.801521
2008-04-17 07:22:35 51°14.382 2°55.008 16.5527 0.008661 0.048797 -1.766697
2008-04-17 07:22:41 51°14.391 2°54.989 16.707 0.008763 0.049309 -1.801521
2008-04-17 07:22:46 51°14.399 2°54.973 16.507 0.008763 0.049309 -1.801521
2008-04-17 07:22:51 51°14.407 2°54.957 16.6298 0.008763 0.049309 -1.801521
2008-04-17 07:22:56 51°14.415 2°54.942 16.6193 0.008763 0.049309 -1.801521
2008-04-17 07:23:01 51°14.424 2°54.926 16.6356 0.008763 0.04931 -1.801521
2008-04-17 07:23:06 51°14.433 2°54.911 16.6674 0.008763 0.049311 -1.801521
2008-04-17 07:23:11 51°14.443 2°54.897 16.62 0.008661 0.048798 -1.801521
2008-04-17 07:23:16 51°14.453 2°54.883 16.5207 0.008763 0.049311 -1.836345
2008-04-17 07:23:21 51°14.463 2°54.869 16.6228 0.008763 0.049312 -1.801521
2008-04-17 07:23:26 51°14.473 2°54.855 16.593 0.008763 0.049312 -1.801521
2008-04-17 07:23:31 51°14.483 2°54.842 16.5919 0.008763 0.049312 -1.801521
2008-04-17 07:23:36 51°14.493 2°54.828 16.5624 0.008763 0.049313 -1.801521
2008-04-17 07:23:40 51°14.502 2°54.817 16.6234 0.008763 0.049314 -1.801521
2008-04-17 07:23:46 51°14.515 2°54.801 16.5522 0.008763 0.049314 -1.766697
2008-04-17 07:23:51 51°14.526 2°54.788 16.5929 0.008763 0.049314 -1.801521
2008-04-17 07:23:56 51°14.537 2°54.775 16.618 0.008763 0.049314 -1.801521
2008-04-17 07:24:01 51°14.547 2°54.763 16.5673 0.008763 0.049314 -1.801521
2008-04-17 07:24:06 51°14.558 2°54.75 16.6224 0.008763 0.049314 -1.766697
2008-04-17 07:24:11 51°14.57 2°54.738 16.6262 0.008763 0.049316 -1.801521
2008-04-17 07:24:16 51°14.58 2°54.725 16.572 0.008763 0.049316 -1.801521
2008-04-17 07:24:21 51°14.591 2°54.712 16.5392 0.008763 0.049317 -1.801521
2008-04-17 07:24:26 51°14.602 2°54.699 16.5729 0.008763 0.049317 -1.801521
2008-04-17 07:24:31 51°14.613 2°54.686 16.4895 0.008763 0.049317 -1.801521
2008-04-17 07:24:36 51°14.624 2°54.672 16.5404 0.008763 0.049317 -1.801521
2008-04-17 07:24:41 51°14.635 2°54.659 16.5969 0.008763 0.049318 -1.801521
2008-04-17 07:24:46 51°14.646 2°54.645 16.5492 0.008763 0.049318 -1.801521
2008-04-17 07:24:51 51°14.656 2°54.632 16.5811 0.008763 0.049318 -1.766697
2008-04-17 07:24:56 51°14.667 2°54.618 16.489 0.008763 0.049318 -1.766697
2008-04-17 07:25:01 51°14.678 2°54.604 16.5089 0.008763 0.049319 -1.801521
2008-04-17 07:25:06 51°14.689 2°54.591 16.5195 0.008763 0.049319 -1.801521
2008-04-17 07:25:11 51°14.7 2°54.578 16.5316 0.008763 0.049319 -1.801521
2008-04-17 07:25:16 51°14.711 2°54.564 16.5148 0.008763 0.04932 -1.801521
2008-04-17 07:25:21 51°14.721 2°54.551 16.5469 0.008763 0.04932 -1.801521
2008-04-17 07:25:26 51°14.732 2°54.537 16.5248 0.008763 0.04932 -1.801521
2008-04-17 07:25:31 51°14.743 2°54.524 16.4737 0.008763 0.04932 -1.801521
2008-04-17 07:25:36 51°14.754 2°54.51 16.4817 0.008763 0.049321 -1.801521
2008-04-17 07:25:40 51°14.763 2°54.5 16.5397 0.008763 0.049321 -1.801521
2008-04-17 07:25:46 51°14.776 2°54.484 16.5526 0.008763 0.049321 -1.801521
2008-04-17 07:25:51 51°14.787 2°54.47 16.5364 0.008763 0.049321 -1.801521
2008-04-17 07:25:56 51°14.798 2°54.457 16.475 0.008763 0.049321 -1.801521
2008-04-17 07:26:00 51°14.806 2°54.447 16.5131 0.008763 0.049322 -1.801521
2008-04-17 07:26:06 51°14.819 2°54.431 16.4802 0.008763 0.049323 -1.766697
2008-04-17 07:26:11 51°14.83 2°54.418 16.5499 0.008763 0.049324 -1.801521
2008-04-17 07:26:16 51°14.841 2°54.405 16.5437 0.008763 0.049324 -1.801521
2008-04-17 07:26:21 51°14.852 2°54.392 16.517 0.008763 0.049325 -1.801521
2008-04-17 07:26:26 51°14.863 2°54.378 16.493 0.008763 0.049325 -1.801521
2008-04-17 07:26:31 51°14.874 2°54.365 16.4176 0.008763 0.049325 -1.801521
2008-04-17 07:26:36 51°14.884 2°54.351 16.5273 0.008763 0.049326 -1.801521
2008-04-17 07:26:41 51°14.895 2°54.338 16.4781 0.008763 0.049326 -1.801521
2008-04-17 07:26:46 51°14.905 2°54.324 16.4697 0.008763 0.049327 -1.801521
2008-04-17 07:26:51 51°14.916 2°54.311 16.4456 0.008763 0.049327 -1.801521
2008-04-17 07:26:56 51°14.927 2°54.298 16.5246 0.008763 0.049327 -1.801521
2008-04-17 07:27:01 51°14.937 2°54.285 16.484 0.008763 0.049327 -1.801521
2008-04-17 07:27:06 51°14.948 2°54.272 16.5357 0.008763 0.049328 -1.801521
2008-04-17 07:27:11 51°14.958 2°54.258 16.5378 0.008763 0.049328 -1.766697
2008-04-17 07:27:16 51°14.969 2°54.245 16.5322 0.008763 0.049329 -1.801521
2008-04-17 07:27:21 51°14.979 2°54.231 16.4383 0.008763 0.049329 -1.801521
2008-04-17 07:27:26 51°14.989 2°54.218 16.4861 0.008763 0.049329 -1.801521
2008-04-17 07:27:31 51°15 2°54.205 16.439 0.008763 0.049329 -1.801521
2008-04-17 07:27:36 51°15.011 2°54.192 16.4503 0.008763 0.049329 -1.801521
2008-04-17 07:27:41 51°15.022 2°54.18 16.4471 0.008763 0.04933 -1.801521
2008-04-17 07:27:46 51°15.033 2°54.167 16.3753 0.008763 0.049331 -1.801521
2008-04-17 07:27:51 51°15.044 2°54.155 16.4475 0.008763 0.04933 -1.801521
2008-04-17 07:27:56 51°15.056 2°54.146 16.4679 0.008763 0.04933 -1.801521
2008-04-17 07:28:00 51°15.065 2°54.138 16.4651 0.008763 0.04933 -1.801521
2008-04-17 07:28:06 51°15.08 2°54.127 16.4273 0.008763 0.049331 -1.801521
2008-04-17 07:28:11 51°15.092 2°54.119 16.4462 0.008763 0.049332 -1.801521
2008-04-17 07:28:16 51°15.104 2°54.11 14.1083 1.040598 6.583374 -1.766697
2008-04-17 07:28:21 51°15.116 2°54.102 12.0122 1.684435 11.157613 -1.801521
2008-04-17 07:28:26 51°15.128 2°54.095 10.8565 1.684435 11.157613 -1.801521
2008-04-17 07:28:31 51°15.14 2°54.087 10.2955 2.462638 16.893457 -1.766697
2008-04-17 07:28:36 51°15.153 2°54.079 9.9963 3.45006 24.784431 11.675387
2008-04-17 07:28:41 51°15.165 2°54.071 9.7895 3.546212 26.196763 67.637642
2008-04-17 07:28:46 51°15.177 2°54.063 9.5975 3.518468 27.255526 69.518141
2008-04-17 07:28:51 51°15.189 2°54.055 9.5351 3.595883 28.93252 69.518141
2008-04-17 07:28:56 51°15.201 2°54.046 9.3342 3.595883 28.93252 69.518141
2008-04-17 07:29:01 51°15.213 2°54.036 9.2219 3.544195 29.523956 69.518141
2008-04-17 07:29:06 51°15.224 2°54.026 9.2264 3.481114 29.923214 69.518141
2008-04-17 07:29:11 51°15.236 2°54.016 9.1419 3.410473 29.807549 69.552965
2008-04-17 07:29:16 51°15.248 2°54.006 9.1215 3.390177 30.072135 69.518141
2008-04-17 07:29:21 51°15.259 2°53.996 9.0645 3.354551 29.993676 69.552965
2008-04-17 07:29:26 51°15.271 2°53.986 9.0094 3.354551 29.993676 69.552965
2008-04-17 07:29:31 51°15.283 2°53.975 8.9503 3.323691 29.941552 69.552965
2008-04-17 07:29:36 51°15.294 2°53.965 8.9904 3.305156 29.934283 69.552965
2008-04-17 07:29:41 51°15.306 2°53.954 8.9583 3.279682 29.751122 69.552965
2008-04-17 07:29:46 51°15.318 2°53.944 8.9109 3.265082 29.697499 69.552965
2008-04-17 07:29:51 51°15.33 2°53.933 8.8719 3.268915 29.807457 69.552965
2008-04-17 07:29:55 51°15.339 2°53.925 8.8613 3.268915 29.807457 69.552965
2008-04-17 07:30:00 51°15.351 2°53.914 8.8737 3.254004 29.731303 69.552965
2008-04-17 07:30:06 51°15.365 2°53.901 8.8485 3.253073 29.783871 69.552965
2008-04-17 07:30:11 51°15.376 2°53.89 8.8312 3.237438 29.658982 69.552965
2008-04-17 07:30:16 51°15.388 2°53.879 8.8455 3.250278 29.834279 69.552965
2008-04-17 07:30:20 51°15.397 2°53.871 8.8228 3.246241 29.842146 69.552965
2008-04-17 07:30:26 51°15.411 2°53.858 8.8153 3.246241 29.842146 69.552965
2008-04-17 07:30:31 51°15.423 2°53.847 8.7904 3.243031 29.841134 69.552965
2008-04-17 07:30:36 51°15.434 2°53.837 8.7991 3.237543 29.810111 69.552965
2008-04-17 07:30:41 51°15.446 2°53.826 8.7823 3.234437 29.79655 69.552965
2008-04-17 07:30:46 51°15.458 2°53.815 8.7872 3.235162 29.823579 69.587789
2008-04-17 07:30:51 51°15.469 2°53.804 8.7712 3.234541 29.832361 69.552965
2008-04-17 07:30:56 51°15.481 2°53.794 8.7729 3.234541 29.832361 69.552965
2008-04-17 07:31:01 51°15.492 2°53.783 8.7695 3.231953 29.821815 69.552965
2008-04-17 07:31:06 51°15.504 2°53.772 8.755 3.234231 29.859479 69.552965
2008-04-17 07:31:11 51°15.516 2°53.761 8.7635 3.232367 29.846494 69.552965
2008-04-17 07:31:16 51°15.527 2°53.75 8.7707 3.232471 29.860442 69.552965
2008-04-17 07:31:21 51°15.539 2°53.739 8.7684 3.230607 29.855037 69.552965
2008-04-17 07:31:26 51°15.551 2°53.729 8.7373 3.230607 29.855037 69.552965
2008-04-17 07:31:31 51°15.562 2°53.718 8.7392 3.231022 29.869904 69.552965
2008-04-17 07:31:36 51°15.574 2°53.708 8.7427 3.226984 29.837688 69.552965
2008-04-17 07:31:41 51°15.585 2°53.697 8.7406 3.230711 29.883443 69.552965
2008-04-17 07:31:46 51°15.597 2°53.686 8.7534 3.226984 29.847558 69.552965
2008-04-17 07:31:51 51°15.608 2°53.675 8.741 3.229676 29.878923 69.552965
2008-04-17 07:31:55 51°15.618 2°53.667 8.7657 3.229676 29.878923 69.552965
2008-04-17 07:32:01 51°15.632 2°53.654 8.7722 3.230194 29.895638 69.552965
2008-04-17 07:32:06 51°15.643 2°53.644 8.7502 3.22978 29.898246 69.552965
2008-04-17 07:32:11 51°15.655 2°53.634 8.7534 3.230194 29.907061 69.552965
2008-04-17 07:32:16 51°15.666 2°53.624 8.728 3.230505 29.914054 69.552965
2008-04-17 07:32:20 51°15.675 2°53.615 8.7302 3.228227 29.891467 69.552965
2008-04-17 07:32:26 51°15.689 2°53.603 8.745 3.228227 29.891467 69.552965
2008-04-17 07:32:31 51°15.701 2°53.593 8.7345 3.23651 29.976385 69.552965
2008-04-17 07:32:36 51°15.713 2°53.583 8.7277 3.233818 29.948783 69.552965
2008-04-17 07:32:41 51°15.724 2°53.573 8.7432 3.239306 30.005817 69.552965
2008-04-17 07:32:46 51°15.736 2°53.562 8.7279 3.23827 30.001314 69.552965
2008-04-17 07:32:51 51°15.747 2°53.552 8.7339 3.241791 30.039722 69.552965
2008-04-17 07:32:56 51°15.759 2°53.541 8.7375 3.241791 30.039722 69.552965
2008-04-17 07:33:01 51°15.77 2°53.531 8.7349 3.247072 30.097741 69.552965
2008-04-17 07:33:06 51°15.782 2°53.521 8.7401 3.247693 30.108723 69.552965
2008-04-17 07:33:11 51°15.793 2°53.51 8.7277 3.24262 30.060479 69.552965
2008-04-17 07:33:16 51°15.805 2°53.5 8.7238 3.251732 30.155561 69.518141
2008-04-17 07:33:21 51°15.816 2°53.489 8.7219 3.246969 30.108191 69.518141
2008-04-17 07:33:26 51°15.828 2°53.478 8.719 3.246969 30.108191 69.518141
2008-04-17 07:33:31 51°15.839 2°53.468 8.7232 3.247901 30.118527 69.518141
2008-04-17 07:33:36 51°15.851 2°53.457 8.7043 3.253182 30.173525 69.518141
2008-04-17 07:33:41 51°15.863 2°53.446 8.7087 3.253182 30.175064 69.552965
2008-04-17 07:33:46 51°15.875 2°53.435 8.7065 3.249765 30.146891 69.518141
2008-04-17 07:33:51 51°15.887 2°53.424 8.7053 3.257738 30.231888 69.518141
2008-04-17 07:33:56 51°15.9 2°53.412 8.6991 3.257738 30.231888 69.518141
2008-04-17 07:34:01 51°15.913 2°53.401 8.7009 3.259705 30.254423 69.518141
2008-04-17 07:34:06 51°15.927 2°53.39 8.6951 3.2537 30.197326 69.518141
2008-04-17 07:34:11 51°15.941 2°53.38 8.7048 3.259705 30.264463 69.518141
2008-04-17 07:34:15 51°15.953 2°53.371 8.6943 3.25401 30.209 69.552965
2008-04-17 07:34:21 51°15.971 2°53.359 8.6942 3.257945 30.25177 69.552965
2008-04-17 07:34:26 51°15.986 2°53.349 8.6917 3.257945 30.25177 69.552965
2008-04-17 07:34:31 51°16.001 2°53.339 8.6894 3.25691 30.245756 69.552965
2008-04-17 07:34:36 51°16.016 2°53.329 8.6765 3.255046 30.22659 69.552965
2008-04-17 07:34:40 51°16.029 2°53.322 8.695 3.249868 30.177211 69.552965
2008-04-17 07:34:46 51°16.047 2°53.31 8.6721 3.254735 30.229571 69.552965
2008-04-17 07:34:51 51°16.062 2°53.3 8.6614 3.255564 30.242725 69.552965
2008-04-17 07:34:56 51°16.077 2°53.29 8.669 3.255564 30.242725 69.552965
2008-04-17 07:35:01 51°16.093 2°53.28 8.6748 3.255357 30.242913 69.552965
2008-04-17 07:35:06 51°16.108 2°53.27 8.668 3.251525 30.208133 69.552965
2008-04-17 07:35:11 51°16.123 2°53.259 8.6507 3.251525 30.211993 69.552965
2008-04-17 07:35:16 51°16.138 2°53.249 8.6679 3.248212 30.180989 69.552965
2008-04-17 07:35:21 51°16.153 2°53.237 8.6445 3.253389 30.24199 69.552965
2008-04-17 07:35:26 51°16.168 2°53.226 8.6468 3.253389 30.24199 69.552965
2008-04-17 07:35:31 51°16.183 2°53.215 8.6353 3.253389 30.243537 69.587789
2008-04-17 07:35:36 51°16.198 2°53.203 8.627 3.251215 30.223472 69.587789
2008-04-17 07:35:41 51°16.213 2°53.192 8.6402 3.25194 30.237119 69.587789
2008-04-17 07:35:46 51°16.228 2°53.18 8.6349 3.247177 30.190399 69.587789
2008-04-17 07:35:51 51°16.243 2°53.168 8.6378 3.246141 30.185144 69.587789
2008-04-17 07:35:56 51°16.257 2°53.156 8.6327 3.246141 30.185144 69.587789
2008-04-17 07:36:01 51°16.272 2°53.143 8.6389 3.243863 30.167865 69.587789
2008-04-17 07:36:06 51°16.287 2°53.13 8.6487 3.244588 30.180735 69.587789
2008-04-17 07:36:11 51°16.301 2°53.118 8.6344 3.243656 30.175771 69.587789
2008-04-17 07:36:15 51°16.313 2°53.108 8.6234 3.24376 30.179927 69.622613
2008-04-17 07:36:21 51°16.33 2°53.093 8.6247 3.245106 30.195341 69.622613
2008-04-17 07:36:26 51°16.344 2°53.08 8.6208 3.245106 30.195341 69.622613
2008-04-17 07:36:31 51°16.359 2°53.067 8.6348 3.244278 30.187579 69.622613
2008-04-17 07:36:36 51°16.373 2°53.054 8.6223 3.245934 30.203102 69.622613
2008-04-17 07:36:41 51°16.387 2°53.041 8.6294 3.244692 30.190301 69.622613
2008-04-17 07:36:46 51°16.401 2°53.028 8.636 3.246556 30.211823 69.622613
2008-04-17 07:36:51 51°16.416 2°53.015 8.6409 3.243553 30.187841 69.622613
2008-04-17 07:36:56 51°16.43 2°53.001 8.63 3.243553 30.187841 69.622613
2008-04-17 07:37:01 51°16.444 2°52.986 8.6469 3.248834 30.243815 69.622613
2008-04-17 07:37:06 51°16.458 2°52.973 8.6463 3.251733 30.274478 69.622613
2008-04-17 07:37:11 51°16.471 2°52.958 8.6483 3.245313 30.209076 69.622613
2008-04-17 07:37:16 51°16.485 2°52.944 8.6553 3.252976 30.288065 69.622613
2008-04-17 07:37:21 51°16.497 2°52.929 8.6568 3.2595 30.354557 69.587789
2008-04-17 07:37:26 51°16.509 2°52.915 8.661 3.2595 30.354557 69.587789
2008-04-17 07:37:31 51°16.519 2°52.902 8.664 3.261778 30.375719 69.587789
2008-04-17 07:37:36 51°16.529 2°52.889 8.6597 3.263434 30.388915 69.587789
2008-04-17 07:37:40 51°16.535 2°52.878 8.6584 3.275446 30.509701 69.587789
2008-04-17 07:37:46 51°16.545 2°52.864 8.662 3.281763 30.571752 69.587789
2008-04-17 07:37:51 51°16.552 2°52.851 8.6611 3.286423 30.617493 69.587789
2008-04-17 07:37:56 51°16.559 2°52.839 8.6624 3.286423 30.617493 69.587789
2008-04-17 07:38:01 51°16.565 2°52.827 8.6603 3.287148 30.622623 69.587789
2008-04-17 07:38:06 51°16.571 2°52.816 8.6584 3.292637 30.677701 69.587789
2008-04-17 07:38:11 51°16.576 2°52.804 8.6584 3.290565 30.657108 69.587789
2008-04-17 07:38:16 51°16.582 2°52.793 8.6667 3.298954 30.742917 69.552965
2008-04-17 07:38:21 51°16.588 2°52.78 8.6589 3.299161 30.743481 69.552965
2008-04-17 07:38:26 51°16.594 2°52.768 8.6691 3.299161 30.743481 69.552965
2008-04-17 07:38:31 51°16.6 2°52.756 8.6656 3.301957 30.772352 69.552965
2008-04-17 07:38:36 51°16.607 2°52.744 8.6607 3.301853 30.771283 69.587789
2008-04-17 07:38:41 51°16.613 2°52.731 8.6772 3.305581 30.810572 69.587789
2008-04-17 07:38:46 51°16.619 2°52.719 8.6649 3.307238 30.827686 69.587789
2008-04-17 07:38:51 51°16.626 2°52.707 8.6675 3.308171 30.837313 69.587789
2008-04-17 07:38:56 51°16.632 2°52.695 8.6691 3.308171 30.837313 69.587789
2008-04-17 07:39:01 51°16.639 2°52.682 8.6624 3.308274 30.837593 69.552965
2008-04-17 07:39:06 51°16.646 2°52.67 8.6798 3.306928 30.822899 69.552965
2008-04-17 07:39:11 51°16.653 2°52.657 8.6618 3.310449 30.858478 69.552965
2008-04-17 07:39:16 51°16.659 2°52.645 8.6599 3.306928 30.821321 69.552965
2008-04-17 07:39:21 51°16.666 2°52.632 8.6601 3.312209 30.876664 69.587789
2008-04-17 07:39:26 51°16.673 2°52.619 8.6554 3.312209 30.876664 69.587789
2008-04-17 07:39:31 51°16.68 2°52.606 8.6533 3.30931 30.847501 69.587789
2008-04-17 07:39:36 51°16.686 2°52.593 8.6605 3.31397 30.894852 69.587789
2008-04-17 07:39:40 51°16.692 2°52.583 8.6618 3.311795 30.872385 69.587789
2008-04-17 07:39:46 51°16.7 2°52.567 8.6529 3.311899 30.875826 69.587789
2008-04-17 07:39:51 51°16.706 2°52.554 8.6518 3.310552 30.864288 69.587789
2008-04-17 07:39:56 51°16.713 2°52.542 8.6567 3.310552 30.864288 69.587789
2008-04-17 07:40:01 51°16.72 2°52.529 8.6433 3.313349 30.893969 69.587789
2008-04-17 07:40:06 51°16.727 2°52.516 8.6526 3.309724 30.86047 69.552965
2008-04-17 07:40:11 51°16.734 2°52.504 8.6502 3.310242 30.864239 69.552965
2008-04-17 07:40:16 51°16.741 2°52.491 8.653 3.31397 30.904345 69.587789
2008-04-17 07:40:21 51°16.748 2°52.478 8.647 3.31832 30.951679 69.587789
2008-04-17 07:40:26 51°16.755 2°52.465 8.6413 3.31832 30.951679 69.587789
2008-04-17 07:40:31 51°16.762 2°52.453 8.6478 3.319873 30.968531 69.552965
2008-04-17 07:40:36 51°16.769 2°52.44 8.6479 3.320287 30.975193 69.552965
2008-04-17 07:40:41 51°16.776 2°52.427 8.6438 3.314177 30.912819 69.552965
2008-04-17 07:40:46 51°16.782 2°52.414 8.6467 3.318838 30.960996 69.552965
2008-04-17 07:40:51 51°16.789 2°52.401 8.6434 3.316249 30.935022 69.552965
2008-04-17 07:40:56 51°16.796 2°52.389 8.6534 3.316249 30.935022 69.552965
2008-04-17 07:41:01 51°16.803 2°52.376 8.6458 3.320391 30.980232 69.552965
2008-04-17 07:41:06 51°16.809 2°52.363 8.6438 3.318941 30.965239 69.552965
2008-04-17 07:41:11 51°16.816 2°52.35 8.6452 3.320909 30.98638 69.552965
2008-04-17 07:41:16 51°16.823 2°52.338 8.6445 3.319977 30.976741 69.552965
2008-04-17 07:41:21 51°16.829 2°52.326 8.6503 3.319563 30.973251 69.552965
2008-04-17 07:41:26 51°16.835 2°52.315 8.6394 3.319563 30.973251 69.552965
2008-04-17 07:41:31 51°16.841 2°52.304 8.6429 3.323809 31.017164 69.552965
2008-04-17 07:41:36 51°16.847 2°52.293 8.6449 3.324223 31.023038 69.552965
2008-04-17 07:41:40 51°16.851 2°52.285 8.6382 3.321116 30.990904 69.518141
2008-04-17 07:41:46 51°16.858 2°52.273 8.6379 3.323394 31.015263 69.518141
2008-04-17 07:41:51 51°16.863 2°52.263 8.649 3.326916 31.050891 69.518141
2008-04-17 07:41:56 51°16.869 2°52.254 8.6391 3.326916 31.050891 69.518141
2008-04-17 07:42:01 51°16.874 2°52.244 8.636 3.325673 31.039626 69.518141
2008-04-17 07:42:06 51°16.878 2°52.235 8.638 3.328262 31.068003 69.518141
2008-04-17 07:42:11 51°16.884 2°52.226 8.6367 3.328883 31.075229 69.518141
2008-04-17 07:42:16 51°16.888 2°52.217 8.64 3.326294 31.049236 69.518141
2008-04-17 07:42:21 51°16.893 2°52.208 8.6385 3.329091 31.078168 69.518141
2008-04-17 07:42:26 51°16.897 2°52.199 8.6443 3.329091 31.078168 69.518141
2008-04-17 07:42:31 51°16.902 2°52.19 8.6364 3.33023 31.090753 69.518141
2008-04-17 07:42:36 51°16.907 2°52.18 8.6428 3.331058 31.099327 69.518141
2008-04-17 07:42:41 51°16.911 2°52.17 8.6421 3.332819 31.11994 69.518141
2008-04-17 07:42:46 51°16.916 2°52.16 8.6505 3.332198 31.114306 69.518141
2008-04-17 07:42:51 51°16.921 2°52.15 8.6391 3.334165 31.134674 69.518141
2008-04-17 07:42:56 51°16.926 2°52.14 8.6411 3.334165 31.134674 69.518141
2008-04-17 07:43:01 51°16.931 2°52.13 8.6393 3.333544 31.128242 69.518141
2008-04-17 07:43:06 51°16.935 2°52.119 8.6441 3.333233 31.125026 69.518141
2008-04-17 07:43:11 51°16.941 2°52.11 8.6433 3.331887 31.110293 69.518141
2008-04-17 07:43:16 51°16.946 2°52.099 8.6408 3.335098 31.143524 69.518141
2008-04-17 07:43:21 51°16.951 2°52.089 8.6434 3.336133 31.154245 69.518141
2008-04-17 07:43:26 51°16.957 2°52.079 8.6443 3.336133 31.154245 69.518141
2008-04-17 07:43:31 51°16.962 2°52.069 8.6422 3.335719 31.149957 69.518141
2008-04-17 07:43:36 51°16.967 2°52.059 8.6438 3.336547 31.158533 69.518141
2008-04-17 07:43:41 51°16.973 2°52.049 8.6411 3.338101 31.174616 69.518141
2008-04-17 07:43:46 51°16.978 2°52.039 8.6386 3.335512 31.148611 69.518141
2008-04-17 07:43:51 51°16.984 2°52.03 8.6412 3.342347 31.218581 69.518141
2008-04-17 07:43:56 51°16.99 2°52.021 8.6457 3.342347 31.218581 69.518141
2008-04-17 07:44:00 51°16.995 2°52.015 8.6385 3.341829 31.212419 69.518141
2008-04-17 07:44:06 51°17.003 2°52.006 8.6465 3.339965 31.193117 69.518141
2008-04-17 07:44:11 51°17.009 2°52 8.6521 3.340587 31.20035 69.518141
2008-04-17 07:44:16 51°17.015 2°51.996 8.651 3.342969 31.225816 69.518141
2008-04-17 07:44:21 51°17.022 2°51.993 8.649 3.34504 31.247266 69.518141
2008-04-17 07:44:26 51°17.029 2°51.99 8.6539 3.34504 31.247266 69.518141
2008-04-17 07:44:31 51°17.035 2°51.988 8.6503 3.345972 31.256119 69.518141
2008-04-17 07:44:36 51°17.042 2°51.986 8.64 3.347111 31.267116 69.518141
2008-04-17 07:44:41 51°17.049 2°51.985 8.6354 3.347629 31.270075 69.518141
2008-04-17 07:44:46 51°17.056 2°51.983 8.6365 3.348665 31.276794 69.518141
2008-04-17 07:44:51 51°17.063 2°51.981 8.6341 3.34939 31.284301 69.518141
2008-04-17 07:44:56 51°17.07 2°51.979 8.6381 3.34939 31.284301 69.518141
2008-04-17 07:45:01 51°17.077 2°51.977 8.6385 3.350115 31.292611 69.518141
2008-04-17 07:45:06 51°17.084 2°51.975 8.639 3.350736 31.302255 69.518141
2008-04-17 07:45:11 51°17.091 2°51.973 8.6402 3.351461 31.312974 69.518141
2008-04-17 07:45:16 51°17.099 2°51.971 8.6392 3.351669 31.319133 69.518141
2008-04-17 07:45:21 51°17.106 2°51.969 8.6379 3.352186 31.326105 69.518141
2008-04-17 07:45:26 51°17.113 2°51.968 8.6404 3.352186 31.326105 69.518141
2008-04-17 07:45:31 51°17.12 2°51.966 8.6406 3.352497 31.328521 69.518141
2008-04-17 07:45:36 51°17.127 2°51.964 8.6407 3.351876 31.322082 69.518141
2008-04-17 07:45:41 51°17.133 2°51.962 8.6161 3.348872 31.29257 69.518141
2008-04-17 07:45:46 51°17.139 2°51.96 8.6138 3.352808 31.332543 69.518141
2008-04-17 07:45:51 51°17.145 2°51.958 8.6134 3.352808 31.33174 69.518141
2008-04-17 07:45:56 51°17.151 2°51.957 8.6131 3.352808 31.33174 69.518141
2008-04-17 07:46:00 51°17.155 2°51.957 8.6169 3.348665 31.28882 69.518141
2008-04-17 07:46:06 51°17.161 2°51.957 8.618 3.352394 31.323433 69.518141
2008-04-17 07:46:11 51°17.165 2°51.958 8.622 3.354983 31.348652 69.518141
2008-04-17 07:46:16 51°17.169 2°51.959 8.62 3.35664 31.369841 69.518141
2008-04-17 07:46:21 51°17.174 2°51.96 8.6225 3.357883 31.386743 69.518141
2008-04-17 07:46:26 51°17.177 2°51.962 8.6204 3.357883 31.386743 69.518141
2008-04-17 07:46:31 51°17.181 2°51.963 8.6202 3.358504 31.395599 69.518141
2008-04-17 07:46:36 51°17.185 2°51.965 8.6251 3.359333 31.404188 69.518141
2008-04-17 07:46:41 51°17.188 2°51.968 8.6278 3.359333 31.404188 69.518141
2008-04-17 07:46:46 51°17.192 2°51.969 8.6283 3.360369 31.414119 69.518141
2008-04-17 07:46:51 51°17.195 2°51.972 8.6292 3.360887 31.418681 69.518141
2008-04-17 07:46:56 51°17.199 2°51.974 8.6331 3.360887 31.418681 69.518141
2008-04-17 07:47:01 51°17.202 2°51.976 8.6315 3.361508 31.425123 69.518141
2008-04-17 07:47:06 51°17.206 2°51.979 8.6266 3.361404 31.424855 69.518141
2008-04-17 07:47:11 51°17.21 2°51.981 8.6231 3.362026 31.430492 69.518141
2008-04-17 07:47:16 51°17.213 2°51.983 8.6288 3.362026 31.42888 69.518141
2008-04-17 07:47:21 51°17.217 2°51.985 8.629 3.362129 31.429148 69.552965
2008-04-17 07:47:26 51°17.22 2°51.987 8.6272 3.362129 31.429148 69.552965
2008-04-17 07:47:31 51°17.223 2°51.99 8.6299 3.362129 31.428342 69.518141
2008-04-17 07:47:36 51°17.226 2°51.992 8.6369 3.362544 31.431831 69.518141
2008-04-17 07:47:41 51°17.229 2°51.995 8.6353 3.362854 31.435858 69.518141
2008-04-17 07:47:46 51°17.231 2°51.998 8.6322 3.36244 31.431563 69.518141
2008-04-17 07:47:51 51°17.233 2°52.002 8.6295 3.363061 31.437199 69.518141
2008-04-17 07:47:55 51°17.235 2°52.004 8.6361 3.363061 31.437199 69.518141
2008-04-17 07:48:01 51°17.238 2°52.009 8.633 3.362647 31.432905 69.518141
2008-04-17 07:48:06 51°17.239 2°52.013 8.6348 3.363269 31.437734 69.518141
2008-04-17 07:48:11 51°17.241 2°52.017 8.6331 3.363165 31.435855 69.518141
2008-04-17 07:48:16 51°17.243 2°52.02 8.6325 3.363372 31.437196 69.518141
2008-04-17 07:48:20 51°17.245 2°52.024 8.6327 3.364097 31.443905 69.518141
2008-04-17 07:48:26 51°17.247 2°52.028 8.6366 3.364097 31.443905 69.518141
2008-04-17 07:48:31 51°17.249 2°52.032 8.6333 3.364408 31.447932 69.518141
2008-04-17 07:48:36 51°17.252 2°52.035 8.6313 3.364511 31.449811 69.518141
2008-04-17 07:48:41 51°17.255 2°52.039 8.6327 3.364615 31.451691 69.518141
2008-04-17 07:48:46 51°17.258 2°52.043 8.6317 3.364615 31.452498 69.552965
2008-04-17 07:48:51 51°17.261 2°52.046 8.6398 3.364408 31.451156 69.552965
2008-04-17 07:48:56 51°17.265 2°52.05 8.6342 3.364408 31.451156 69.552965
2008-04-17 07:49:01 51°17.269 2°52.053 8.6352 3.364304 31.449277 69.552965
2008-04-17 07:49:06 51°17.273 2°52.056 8.6324 3.364201 31.448203 69.518141
2008-04-17 07:49:11 51°17.278 2°52.059 8.6312 3.364201 31.449009 69.518141
2008-04-17 07:49:16 51°17.282 2°52.062 8.6329 3.364408 31.451156 69.518141
2008-04-17 07:49:21 51°17.287 2°52.066 8.6312 3.364615 31.452498 69.518141
2008-04-17 07:49:26 51°17.291 2°52.07 8.6359 3.364615 31.452498 69.518141
2008-04-17 07:49:31 51°17.294 2°52.075 8.6334 3.364822 31.455451 69.518141
2008-04-17 07:49:36 51°17.298 2°52.08 8.6373 3.364926 31.456525 69.518141
2008-04-17 07:49:41 51°17.301 2°52.085 8.6411 3.364822 31.455451 69.518141
2008-04-17 07:49:46 51°17.303 2°52.09 8.6309 3.364719 31.454378 69.518141
2008-04-17 07:49:51 51°17.306 2°52.095 8.6346 3.364719 31.452765 69.518141
2008-04-17 07:49:56 51°17.308 2°52.1 8.631 3.364719 31.452765 69.518141
2008-04-17 07:50:01 51°17.31 2°52.104 8.632 3.364719 31.451959 69.518141
2008-04-17 07:50:06 51°17.312 2°52.109 8.6295 3.364926 31.454106 69.518141
2008-04-17 07:50:11 51°17.313 2°52.113 8.6334 3.36534 31.457594 69.518141
2008-04-17 07:50:16 51°17.315 2°52.118 8.6366 3.365547 31.460548 69.518141
2008-04-17 07:50:21 51°17.316 2°52.122 8.6321 3.365547 31.462161 69.518141
2008-04-17 07:50:26 51°17.318 2°52.126 8.6325 3.365547 31.462161 69.518141
2008-04-17 07:50:31 51°17.32 2°52.129 8.6399 3.365547 31.462967 69.518141
2008-04-17 07:50:36 51°17.321 2°52.133 8.6351 3.365754 31.465921 69.518141
2008-04-17 07:50:41 51°17.322 2°52.135 8.6361 3.365858 31.466995 69.518141
2008-04-17 07:50:46 51°17.323 2°52.137 8.64 3.365858 31.466995 69.518141
2008-04-17 07:50:51 51°17.323 2°52.138 8.643 3.365754 31.465115 69.518141
2008-04-17 07:50:56 51°17.323 2°52.139 8.6408 3.365754 31.465115 69.518141
2008-04-17 07:51:01 51°17.323 2°52.14 8.6399 3.365858 31.466189 69.518141
2008-04-17 07:51:06 51°17.323 2°52.14 8.6424 3.365651 31.462428 69.518141
2008-04-17 07:51:11 51°17.323 2°52.14 8.6447 3.365547 31.461354 69.518141
2008-04-17 07:51:16 51°17.323 2°52.141 8.6386 3.365547 31.459741 69.518141
2008-04-17 07:51:21 51°17.323 2°52.141 8.6451 3.365651 31.460009 69.518141
2008-04-17 07:51:26 51°17.323 2°52.141 8.6491 3.365651 31.460009 69.518141
2008-04-17 07:51:31 51°17.322 2°52.141 8.649 3.365754 31.460276 69.518141
2008-04-17 07:51:36 51°17.322 2°52.141 8.6438 3.365754 31.460276 69.518141
2008-04-17 07:51:41 51°17.321 2°52.14 8.654 3.365858 31.461349 69.518141
2008-04-17 07:51:46 51°17.321 2°52.14 8.6377 3.366065 31.46269 69.518141
2008-04-17 07:51:51 51°17.32 2°52.139 8.673 3.366169 31.463764 69.518141
2008-04-17 07:51:56 51°17.32 2°52.139 8.6494 3.366169 31.463764 69.518141
2008-04-17 07:52:01 51°17.319 2°52.138 8.6425 3.366376 31.463492 69.518141
2008-04-17 07:52:06 51°17.319 2°52.137 8.6363 3.366479 31.462953 69.518141
2008-04-17 07:52:11 51°17.318 2°52.137 8.6371 3.365547 31.454098 69.518141
2008-04-17 07:52:15 51°17.318 2°52.136 8.6317 3.366479 31.464565 69.518141
2008-04-17 07:52:21 51°17.317 2°52.134 8.6259 3.366686 31.464293 69.518141
2008-04-17 07:52:26 51°17.316 2°52.134 8.6582 3.366686 31.464293 69.518141
2008-04-17 07:52:31 51°17.316 2°52.132 8.6519 3.36679 31.46456 69.518141
2008-04-17 07:52:36 51°17.315 2°52.131 8.6505 3.366583 31.464832 69.518141
2008-04-17 07:52:41 51°17.315 2°52.13 8.6384 3.366583 31.467252 69.518141
2008-04-17 07:52:46 51°17.314 2°52.128 8.6321 3.366479 31.469404 69.518141
2008-04-17 07:52:51 51°17.313 2°52.127 8.6367 3.366065 31.468336 69.518141
2008-04-17 07:52:56 51°17.312 2°52.125 8.6498 3.366065 31.468336 69.518141
2008-04-17 07:53:01 51°17.312 2°52.123 8.6229 3.366169 31.467796 69.518141
2008-04-17 07:53:06 51°17.311 2°52.121 8.6357 3.366272 31.465644 69.518141
2008-04-17 07:53:11 51°17.31 2°52.119 8.634 3.366583 31.467252 69.518141
2008-04-17 07:53:16 51°17.309 2°52.118 8.632 3.366479 31.468598 69.518141
2008-04-17 07:53:21 51°17.308 2°52.116 8.6288 3.366272 31.46887 69.518141
2008-04-17 07:53:26 51°17.307 2°52.114 8.6318 3.366272 31.46887 69.518141
2008-04-17 07:53:31 51°17.307 2°52.112 8.631 3.366272 31.469677 69.518141
2008-04-17 07:53:36 51°17.306 2°52.109 8.6312 3.365962 31.469682 69.518141
2008-04-17 07:53:41 51°17.305 2°52.107 8.6279 3.365962 31.469682 69.518141
2008-04-17 07:53:46 51°17.304 2°52.105 8.6228 3.366065 31.469143 69.518141
2008-04-17 07:53:51 51°17.303 2°52.104 8.6251 3.365754 31.468342 69.518141
2008-04-17 07:53:56 51°17.303 2°52.101 8.632 3.365754 31.468342 69.518141
2008-04-17 07:54:01 51°17.302 2°52.1 8.637 3.365754 31.469148 69.518141
2008-04-17 07:54:06 51°17.302 2°52.098 8.6327 3.365237 31.463779 69.518141
2008-04-17 07:54:11 51°17.302 2°52.097 8.6359 3.365651 31.469688 69.518141
2008-04-17 07:54:16 51°17.303 2°52.096 8.642 3.365547 31.470228 69.518141
2008-04-17 07:54:21 51°17.304 2°52.097 8.627 3.365547 31.470228 69.518141
2008-04-17 07:54:26 51°17.306 2°52.098 8.6277 3.365547 31.470228 69.518141
2008-04-17 07:54:31 51°17.308 2°52.099 8.6296 3.363372 31.446869 69.518141
2008-04-17 07:54:36 51°17.31 2°52.101 8.6313 3.365651 31.469688 69.518141
2008-04-17 07:54:41 51°17.311 2°52.103 8.6299 3.365754 31.470762 69.518141
2008-04-17 07:54:46 51°17.312 2°52.105 8.6289 3.364304 31.454921 69.518141
2008-04-17 07:54:51 51°17.313 2°52.107 8.6263 3.365444 31.465927 69.518141
2008-04-17 07:54:56 51°17.314 2°52.109 8.6253 3.365444 31.465927 69.518141
2008-04-17 07:55:01 51°17.315 2°52.112 8.6259 3.365237 31.465392 69.518141
2008-04-17 07:55:06 51°17.316 2°52.115 8.6252 3.365029 31.464051 69.518141
2008-04-17 07:55:11 51°17.316 2°52.118 8.6226 3.365133 31.465125 69.518141
2008-04-17 07:55:16 51°17.317 2°52.121 8.6268 3.364822 31.46271 69.518141
2008-04-17 07:55:21 51°17.317 2°52.124 8.6252 3.365029 31.464858 69.518141
2008-04-17 07:55:26 51°17.317 2°52.127 8.6286 3.365029 31.464858 69.518141
2008-04-17 07:55:31 51°17.318 2°52.131 8.6299 3.364615 31.462176 69.518141
2008-04-17 07:55:36 51°17.318 2°52.134 8.6196 3.364512 31.462715 69.518141
2008-04-17 07:55:40 51°17.318 2°52.136 8.6212 3.36244 31.441236 69.518141
2008-04-17 07:55:46 51°17.319 2°52.139 8.6321 3.363372 31.451708 69.518141
2008-04-17 07:55:51 51°17.319 2°52.142 8.6213 3.364201 31.461107 69.518141
2008-04-17 07:55:56 51°17.319 2°52.143 8.6212 3.364201 31.461107 69.518141
2008-04-17 07:56:01 51°17.319 2°52.145 8.6183 3.364305 31.462181 69.518141
2008-04-17 07:56:06 51°17.319 2°52.146 8.6241 3.364201 31.459493 69.518141
2008-04-17 07:56:11 51°17.32 2°52.146 8.6208 3.364201 31.461107 69.518141
2008-04-17 07:56:16 51°17.32 2°52.147 8.6276 3.363062 31.450099 69.518141
2008-04-17 07:56:21 51°17.32 2°52.148 8.6248 3.36389 31.458692 69.518141
2008-04-17 07:56:26 51°17.32 2°52.148 8.6253 3.36389 31.458692 69.518141
2008-04-17 07:56:31 51°17.32 2°52.149 8.6206 3.363372 31.454128 69.518141
2008-04-17 07:56:36 51°17.32 2°52.149 8.6202 3.363683 31.458157 69.518141
2008-04-17 07:56:41 51°17.32 2°52.149 8.6185 3.363372 31.454935 69.518141
2008-04-17 07:56:46 51°17.32 2°52.149 8.6235 3.363372 31.454935 69.518141
2008-04-17 07:56:51 51°17.32 2°52.149 8.6237 3.363476 31.455202 69.518141
2008-04-17 07:56:56 51°17.32 2°52.149 8.6302 3.363476 31.455202 69.518141
2008-04-17 07:57:01 51°17.32 2°52.149 8.6218 3.362958 31.449831 69.518141
2008-04-17 07:57:06 51°17.32 2°52.149 8.6161 3.363372 31.454935 69.518141
2008-04-17 07:57:11 51°17.32 2°52.148 8.6231 3.363165 31.453593 69.518141
2008-04-17 07:57:16 51°17.32 2°52.148 8.6228 3.363062 31.452519 69.518141
2008-04-17 07:57:21 51°17.32 2°52.148 8.6213 3.363165 31.453593 69.518141
2008-04-17 07:57:26 51°17.32 2°52.147 8.6169 3.363165 31.453593 69.518141
2008-04-17 07:57:31 51°17.32 2°52.146 8.6237 3.363062 31.451712 69.518141
2008-04-17 07:57:36 51°17.32 2°52.146 8.6166 3.362647 31.448222 69.518141
2008-04-17 07:57:40 51°17.32 2°52.145 8.6169 3.360265 31.425131 69.518141
2008-04-17 07:57:46 51°17.32 2°52.144 8.6163 3.362751 31.45091 69.518141
2008-04-17 07:57:51 51°17.32 2°52.143 8.6255 3.360887 31.430769 69.552965
2008-04-17 07:57:56 51°17.32 2°52.143 8.6156 3.360887 31.430769 69.552965
2008-04-17 07:58:01 51°17.319 2°52.142 8.6265 3.362544 31.449568 69.518141
2008-04-17 07:58:06 51°17.319 2°52.141 8.6152 3.362544 31.449568 69.518141
2008-04-17 07:58:11 51°17.319 2°52.14 8.6089 3.361715 31.442588 69.518141
2008-04-17 07:58:16 51°17.319 2°52.139 8.6154 3.362337 31.449033 69.518141
2008-04-17 07:58:21 51°17.319 2°52.138 8.619 3.36213 31.447691 69.518141
2008-04-17 07:58:26 51°17.319 2°52.137 8.6196 3.36213 31.447691 69.518141
2008-04-17 07:58:31 51°17.319 2°52.136 8.6127 3.36099 31.435068 69.518141
2008-04-17 07:58:36 51°17.319 2°52.135 8.6148 3.36213 31.446885 69.518141
2008-04-17 07:58:41 51°17.318 2°52.134 8.6081 3.361922 31.445543 69.518141
2008-04-17 07:58:46 51°17.318 2°52.133 8.6123 3.361922 31.447156 69.518141
2008-04-17 07:58:51 51°17.318 2°52.132 8.6118 3.361819 31.446082 69.518141
2008-04-17 07:58:56 51°17.318 2°52.131 8.6119 3.361819 31.446082 69.518141
2008-04-17 07:59:01 51°17.318 2°52.13 8.6071 3.360058 31.427013 69.518141
2008-04-17 07:59:06 51°17.317 2°52.129 8.6081 3.360783 31.436146 69.518141
2008-04-17 07:59:11 51°17.317 2°52.128 8.6139 3.359955 31.428358 69.518141
2008-04-17 07:59:16 51°17.317 2°52.127 8.6086 3.361301 31.443937 69.518141
2008-04-17 07:59:21 51°17.316 2°52.126 8.6147 3.361301 31.444744 69.518141
2008-04-17 07:59:26 51°17.316 2°52.124 8.6115 3.361301 31.444744 69.518141
2008-04-17 07:59:31 51°17.316 2°52.123 8.6109 3.361197 31.44367 69.518141
2008-04-17 07:59:36 51°17.315 2°52.122 8.609 3.360058 31.432658 69.518141
2008-04-17 07:59:41 51°17.315 2°52.121 8.6093 3.361094 31.444209 69.518141
2008-04-17 07:59:46 51°17.315 2°52.12 8.6132 3.361094 31.443402 69.518141
2008-04-17 07:59:51 51°17.315 2°52.119 8.6141 3.36099 31.443134 69.518141
2008-04-17 07:59:56 51°17.315 2°52.118 8.6133 3.36099 31.443134 69.518141
2008-04-17 08:00:01 51°17.314 2°52.117 8.6167 3.360783 31.440986 69.518141
2008-04-17 08:00:06 51°17.314 2°52.117 8.6121 3.360265 31.43642 69.518141
2008-04-17 08:00:11 51°17.314 2°52.116 8.61 3.359333 31.42675 69.518141
2008-04-17 08:00:16 51°17.314 2°52.115 8.614 3.359437 31.427825 69.518141
2008-04-17 08:00:21 51°17.314 2°52.115 8.6125 3.360783 31.440179 69.518141
2008-04-17 08:00:26 51°17.315 2°52.115 8.6116 3.360783 31.440179 69.518141
2008-04-17 08:00:31 51°17.315 2°52.115 8.6142 3.359747 31.429435 69.518141
2008-04-17 08:00:36 51°17.315 2°52.115 8.6099 3.36099 31.441521 69.518141
2008-04-17 08:00:41 51°17.315 2°52.115 8.6145 3.360472 31.436956 69.518141
2008-04-17 08:00:46 51°17.315 2°52.115 8.611 3.358815 31.420572 69.518141
2008-04-17 08:00:51 51°17.316 2°52.115 8.6057 3.360265 31.435613 69.518141
2008-04-17 08:00:56 51°17.316 2°52.115 8.6053 3.360265 31.435613 69.518141
2008-04-17 08:01:01 51°17.316 2°52.116 8.6077 3.360783 31.440986 69.518141
2008-04-17 08:01:06 51°17.316 2°52.116 8.6084 3.36099 31.443134 69.518141
2008-04-17 08:01:11 51°17.316 2°52.116 8.6055 3.360783 31.440986 69.518141
2008-04-17 08:01:16 51°17.316 2°52.116 8.6038 3.36068 31.440718 69.518141
2008-04-17 08:01:21 51°17.316 2°52.116 8.605 3.360887 31.443674 69.518141
2008-04-17 08:01:26 51°17.316 2°52.117 8.6006 3.360887 31.443674 69.518141
2008-04-17 08:01:31 51°17.316 2°52.117 8.6016 3.360783 31.44502 69.518141
2008-04-17 08:01:36 51°17.316 2°52.117 8.6028 3.36068 31.443945 69.518141
2008-04-17 08:01:41 51°17.316 2°52.117 8.6025 3.359955 31.43723 69.552965
2008-04-17 08:01:46 51°17.316 2°52.117 8.6027 3.359748 31.435888 69.518141
2008-04-17 08:01:51 51°17.315 2°52.117 8.605 3.359023 31.429979 69.518141
2008-04-17 08:01:56 51°17.316 2°52.117 8.6012 3.359023 31.429979 69.518141
2008-04-17 08:02:01 51°17.315 2°52.117 8.6012 3.35923 31.432935 69.518141
2008-04-17 08:02:06 51°17.315 2°52.118 8.6023 3.359437 31.435891 69.518141
2008-04-17 08:02:11 51°17.315 2°52.118 8.6042 3.360369 31.444757 69.518141
2008-04-17 08:02:16 51°17.315 2°52.118 8.6059 3.359023 31.430786 69.518141
2008-04-17 08:02:21 51°17.315 2°52.117 8.6005 3.359644 31.438041 69.518141
2008-04-17 08:02:26 51°17.315 2°52.118 8.6009 3.359644 31.438041 69.518141
2008-04-17 08:02:31 51°17.314 2°52.118 8.6015 3.359851 31.440997 69.518141
2008-04-17 08:02:36 51°17.314 2°52.118 8.6035 3.359126 31.433474 69.518141
2008-04-17 08:02:41 51°17.314 2°52.118 8.6106 3.35954 31.437773 69.518141
2008-04-17 08:02:46 51°17.314 2°52.118 8.6047 3.359851 31.44019 69.518141
2008-04-17 08:02:51 51°17.314 2°52.118 8.6045 3.359126 31.432667 69.552965
2008-04-17 08:02:56 51°17.314 2°52.118 8.5991 3.359126 31.432667 69.552965
2008-04-17 08:03:01 51°17.314 2°52.117 8.6009 3.358815 31.429443 69.518141
2008-04-17 08:03:06 51°17.313 2°52.117 8.5991 3.358608 31.427294 69.518141
2008-04-17 08:03:11 51°17.313 2°52.117 8.6024 3.359644 31.437234 69.518141
2008-04-17 08:03:16 51°17.313 2°52.117 8.5962 3.359437 31.434278 69.518141
2008-04-17 08:03:21 51°17.313 2°52.116 8.5972 3.357469 31.413861 69.518141
2008-04-17 08:03:26 51°17.313 2°52.116 8.5961 3.357469 31.413861 69.518141
2008-04-17 08:03:31 51°17.313 2°52.116 8.6113 3.357987 31.421653 69.518141
2008-04-17 08:03:36 51°17.312 2°52.116 8.603 3.356537 31.407415 69.518141
2008-04-17 08:03:41 51°17.312 2°52.115 8.6075 3.359955 31.444493 69.518141
2008-04-17 08:03:46 51°17.312 2°52.115 8.6023 3.359541 31.441001 69.518141
2008-04-17 08:03:51 51°17.312 2°52.115 8.6016 3.358816 31.434284 69.518141
2008-04-17 08:03:56 51°17.312 2°52.115 8.5975 3.358816 31.434284 69.518141
2008-04-17 08:04:01 51°17.312 2°52.115 8.598 3.359126 31.437509 69.518141
2008-04-17 08:04:06 51°17.312 2°52.115 8.602 3.359333 31.437237 69.518141
2008-04-17 08:04:11 51°17.312 2°52.115 8.603 3.357262 31.414131 69.518141
2008-04-17 08:04:16 51°17.312 2°52.115 8.5952 3.358505 31.427026 69.518141
2008-04-17 08:04:21 51°17.312 2°52.116 8.5986 3.359023 31.433206 69.518141
2008-04-17 08:04:26 51°17.312 2°52.116 8.5932 3.359023 31.433206 69.518141
2008-04-17 08:04:31 51°17.312 2°52.117 8.5948 3.35923 31.436163 69.518141
2008-04-17 08:04:36 51°17.312 2°52.117 8.5964 3.358194 31.425415 69.518141
2008-04-17 08:04:41 51°17.312 2°52.118 8.5937 3.359851 31.442611 69.518141
2008-04-17 08:04:46 51°17.312 2°52.119 8.5911 3.358919 31.433745 69.518141
2008-04-17 08:04:51 51°17.312 2°52.12 8.5979 3.356951 31.414939 69.518141
2008-04-17 08:04:56 51°17.311 2°52.121 8.5944 3.356951 31.414939 69.518141
2008-04-17 08:05:01 51°17.311 2°52.122 8.5923 3.356537 31.412253 69.518141
2008-04-17 08:05:06 51°17.311 2°52.124 8.5907 3.357987 31.428107 69.518141
2008-04-17 08:05:11 51°17.311 2°52.125 8.5944 3.359437 31.443155 69.518141
2008-04-17 08:05:16 51°17.311 2°52.127 8.5918 3.356019 31.408492 69.518141
2008-04-17 08:05:21 51°17.311 2°52.128 8.592 3.357158 31.421928 69.518141
2008-04-17 08:05:26 51°17.31 2°52.13 8.5908 3.357158 31.421928 69.518141
2008-04-17 08:05:31 51°17.31 2°52.131 8.5929 3.359126 31.442352 69.518141
2008-04-17 08:05:36 51°17.31 2°52.133 8.5919 3.359023 31.442085 69.518141
2008-04-17 08:05:41 51°17.31 2°52.135 8.5966 3.358919 31.441817 69.518141
2008-04-17 08:05:46 51°17.31 2°52.137 8.5932 3.358919 31.442624 69.518141
2008-04-17 08:05:51 51°17.31 2°52.139 8.5921 3.358816 31.440742 69.518141
2008-04-17 08:05:55 51°17.31 2°52.14 8.5933 3.358816 31.440742 69.518141
2008-04-17 08:06:01 51°17.31 2°52.143 8.5915 3.358816 31.441549 69.518141
2008-04-17 08:06:06 51°17.31 2°52.145 8.5915 3.358816 31.441549 69.518141
2008-04-17 08:06:11 51°17.31 2°52.146 8.5907 3.358401 31.437249 69.518141
2008-04-17 08:06:16 51°17.309 2°52.149 8.5889 3.358816 31.439934 69.518141
2008-04-17 08:06:21 51°17.31 2°52.15 8.5881 3.358816 31.439934 69.518141
2008-04-17 08:06:26 51°17.31 2°52.153 8.5892 3.358816 31.439934 69.518141
2008-04-17 08:06:31 51°17.31 2°52.155 8.5893 3.358816 31.440742 69.518141
2008-04-17 08:06:36 51°17.31 2°52.156 8.5903 3.358816 31.440742 69.518141
2008-04-17 08:06:41 51°17.31 2°52.158 8.5916 3.358816 31.441549 69.518141
2008-04-17 08:06:46 51°17.311 2°52.16 8.5928 3.358712 31.442089 69.518141
2008-04-17 08:06:51 51°17.311 2°52.161 8.5962 3.358505 31.440746 69.518141
2008-04-17 08:06:56 51°17.312 2°52.163 8.5947 3.358505 31.440746 69.518141
2008-04-17 08:07:01 51°17.312 2°52.164 8.5988 3.358505 31.440746 69.518141
2008-04-17 08:07:06 51°17.313 2°52.166 8.5993 3.357469 31.430802 69.518141
2008-04-17 08:07:11 51°17.314 2°52.167 8.6017 3.357987 31.43537 69.518141
2008-04-17 08:07:16 51°17.314 2°52.168 8.603 3.35778 31.43322 69.518141
2008-04-17 08:07:21 51°17.315 2°52.168 8.603 3.357573 31.430263 69.518141
2008-04-17 08:07:26 51°17.315 2°52.169 8.6007 3.357573 31.430263 69.518141
2008-04-17 08:07:31 51°17.316 2°52.169 8.5966 3.357676 31.429724 69.518141
2008-04-17 08:07:36 51°17.317 2°52.17 8.5965 3.35778 31.428378 69.518141
2008-04-17 08:07:41 51°17.317 2°52.17 8.6032 3.358194 31.431063 69.552965
2008-04-17 08:07:46 51°17.318 2°52.17 8.5974 3.358505 31.432674 69.518141
2008-04-17 08:07:51 51°17.319 2°52.17 8.5997 3.358712 31.434017 69.518141
2008-04-17 08:07:55 51°17.319 2°52.17 8.6016 3.358712 31.434017 69.518141
2008-04-17 08:08:01 51°17.32 2°52.17 8.6048 3.358712 31.434017 69.518141
2008-04-17 08:08:06 51°17.32 2°52.171 8.5965 3.358608 31.433749 69.518141
2008-04-17 08:08:11 51°17.321 2°52.17 8.5963 3.358712 31.434824 69.518141
2008-04-17 08:08:16 51°17.321 2°52.17 8.5972 3.358608 31.433749 69.518141
2008-04-17 08:08:21 51°17.321 2°52.17 8.5989 3.358712 31.434017 69.518141
2008-04-17 08:08:26 51°17.322 2°52.17 8.5962 3.358712 31.434017 69.518141
2008-04-17 08:08:31 51°17.322 2°52.17 8.5976 3.358505 31.43106 69.518141
2008-04-17 08:08:36 51°17.322 2°52.17 8.5951 3.358712 31.43321 69.518141
2008-04-17 08:08:41 51°17.322 2°52.169 8.5983 3.358091 31.428375 69.518141
2008-04-17 08:08:46 51°17.323 2°52.169 8.5974 3.358505 31.432674 69.518141
2008-04-17 08:08:51 51°17.323 2°52.169 8.593 3.358505 31.433481 69.518141
2008-04-17 08:08:56 51°17.323 2°52.169 8.594 3.358505 31.433481 69.518141
2008-04-17 08:09:01 51°17.323 2°52.168 8.591 3.358298 31.432138 69.518141
2008-04-17 08:09:06 51°17.323 2°52.168 8.5915 3.358401 31.433213 69.518141
2008-04-17 08:09:11 51°17.324 2°52.168 8.5915 3.357573 31.425421 69.518141
2008-04-17 08:09:16 51°17.324 2°52.167 8.5895 3.358298 31.432945 69.518141
2008-04-17 08:09:21 51°17.324 2°52.166 8.5877 3.357469 31.425153 69.518141
2008-04-17 08:09:26 51°17.324 2°52.166 8.59 3.357469 31.425153 69.518141
2008-04-17 08:09:31 51°17.324 2°52.165 8.5905 3.357573 31.427842 69.518141
2008-04-17 08:09:36 51°17.324 2°52.165 8.5903 3.358091 31.434024 69.518141
2008-04-17 08:09:41 51°17.324 2°52.164 8.5884 3.357987 31.434563 69.518141
2008-04-17 08:09:46 51°17.324 2°52.164 8.5877 3.35778 31.43322 69.518141
2008-04-17 08:09:51 51°17.324 2°52.163 8.5876 3.357573 31.43107 69.518141
2008-04-17 08:09:56 51°17.324 2°52.162 8.5907 3.357573 31.43107 69.518141
2008-04-17 08:10:01 51°17.324 2°52.162 8.5897 3.356641 31.421394 69.518141
2008-04-17 08:10:06 51°17.324 2°52.161 8.588 3.357573 31.43107 69.518141
2008-04-17 08:10:11 51°17.324 2°52.16 8.5877 3.35778 31.43322 69.518141
2008-04-17 08:10:15 51°17.323 2°52.159 8.5872 3.357676 31.432952 69.518141
2008-04-17 08:10:21 51°17.323 2°52.158 8.5896 3.357158 31.427577 69.518141
2008-04-17 08:10:26 51°17.323 2°52.158 8.5888 3.357158 31.427577 69.518141
2008-04-17 08:10:31 51°17.323 2°52.157 8.5896 3.357573 31.433492 69.518141
2008-04-17 08:10:36 51°17.323 2°52.156 8.5899 3.356226 31.419515 69.518141
2008-04-17 08:10:40 51°17.323 2°52.155 8.5878 3.357573 31.433492 69.518141
2008-04-17 08:10:46 51°17.323 2°52.154 8.5908 3.355501 31.411989 69.518141
2008-04-17 08:10:51 51°17.323 2°52.153 8.5927 3.357262 31.430266 69.518141
2008-04-17 08:10:56 51°17.323 2°52.152 8.5917 3.357262 31.430266 69.518141
2008-04-17 08:11:01 51°17.323 2°52.151 8.5919 3.357366 31.431341 69.518141
2008-04-17 08:11:06 51°17.323 2°52.151 8.5907 3.356951 31.426234 69.518141
2008-04-17 08:11:11 51°17.322 2°52.15 8.5887 3.356019 31.416558 69.518141
2008-04-17 08:11:16 51°17.322 2°52.149 8.5871 3.357366 31.429727 69.518141
2008-04-17 08:11:21 51°17.322 2°52.148 8.591 3.357573 31.43107 69.518141
2008-04-17 08:11:26 51°17.322 2°52.147 8.5894 3.357573 31.43107 69.518141
2008-04-17 08:11:31 51°17.322 2°52.146 8.5933 3.357366 31.42892 69.518141
2008-04-17 08:11:36 51°17.322 2°52.145 8.5924 3.355812 31.412794 69.518141
2008-04-17 08:11:41 51°17.321 2°52.144 8.5928 3.357469 31.429995 69.518141
2008-04-17 08:11:46 51°17.321 2°52.143 8.593 3.357366 31.42892 69.518141
2008-04-17 08:11:51 51°17.321 2°52.142 8.5906 3.357366 31.42892 69.518141
2008-04-17 08:11:56 51°17.321 2°52.141 8.5928 3.357366 31.42892 69.518141
2008-04-17 08:12:01 51°17.32 2°52.14 8.5921 3.357366 31.42892 69.518141
2008-04-17 08:12:06 51°17.32 2°52.139 8.5926 3.357262 31.427845 69.518141
2008-04-17 08:12:11 51°17.32 2°52.138 8.5934 3.357262 31.427845 69.518141
2008-04-17 08:12:16 51°17.32 2°52.137 8.5941 3.357262 31.427845 69.518141
2008-04-17 08:12:21 51°17.319 2°52.136 8.5932 3.357262 31.427845 69.518141
2008-04-17 08:12:26 51°17.319 2°52.134 8.5952 3.357262 31.427845 69.518141
2008-04-17 08:12:31 51°17.319 2°52.133 8.5941 3.357158 31.427577 69.518141
2008-04-17 08:12:36 51°17.319 2°52.132 8.5944 3.357158 31.427577 69.518141
2008-04-17 08:12:41 51°17.319 2°52.131 8.5958 3.357158 31.42677 69.518141
2008-04-17 08:12:46 51°17.318 2°52.13 8.5969 3.357262 31.427038 69.518141
2008-04-17 08:12:51 51°17.318 2°52.129 8.5945 3.357262 31.427038 69.518141
2008-04-17 08:12:56 51°17.318 2°52.128 8.5961 3.357262 31.427038 69.518141
2008-04-17 08:13:01 51°17.318 2°52.126 8.5955 3.357262 31.427845 69.518141
2008-04-17 08:13:06 51°17.317 2°52.125 8.593 3.357262 31.427845 69.518141
2008-04-17 08:13:11 51°17.317 2°52.124 8.5907 3.357262 31.426231 69.518141
2008-04-17 08:13:16 51°17.317 2°52.122 8.5947 3.357366 31.426499 69.518141
2008-04-17 08:13:21 51°17.317 2°52.121 8.5961 3.357469 31.427574 69.518141
2008-04-17 08:13:26 51°17.317 2°52.121 8.5942 3.357469 31.427574 69.518141
2008-04-17 08:13:31 51°17.317 2°52.12 8.5957 3.357469 31.427574 69.518141
2008-04-17 08:13:36 51°17.318 2°52.12 8.5969 3.357366 31.425692 69.518141
2008-04-17 08:13:40 51°17.318 2°52.119 8.5966 3.357366 31.427306 69.518141
2008-04-17 08:13:46 51°17.319 2°52.12 8.6004 3.357158 31.425963 69.518141
2008-04-17 08:13:51 51°17.32 2°52.121 8.6014 3.357158 31.425963 69.518141
2008-04-17 08:13:56 51°17.321 2°52.122 8.5939 3.357158 31.425963 69.518141
2008-04-17 08:14:01 51°17.322 2°52.123 8.5889 3.357158 31.425156 69.518141
2008-04-17 08:14:06 51°17.323 2°52.126 8.5885 3.357158 31.425156 69.518141
2008-04-17 08:14:11 51°17.324 2°52.129 8.5861 3.357262 31.425424 69.518141
2008-04-17 08:14:16 51°17.325 2°52.132 8.5842 3.357366 31.425692 69.518141
2008-04-17 08:14:21 51°17.326 2°52.136 8.581 3.357262 31.42381 69.518141
2008-04-17 08:14:26 51°17.327 2°52.139 8.5829 3.357262 31.42381 69.518141
2008-04-17 08:14:31 51°17.326 2°52.143 8.585 3.357055 31.42166 69.518141
2008-04-17 08:14:36 51°17.326 2°52.146 8.5838 3.356537 31.418706 69.518141
2008-04-17 08:14:41 51°17.326 2°52.15 8.5851 3.356226 31.417094 69.518141
2008-04-17 08:14:46 51°17.325 2°52.153 8.5849 3.355605 31.413871 69.518141
2008-04-17 08:14:51 51°17.325 2°52.155 8.5846 3.355294 31.412259 69.518141
2008-04-17 08:14:56 51°17.324 2°52.158 8.5836 3.355294 31.412259 69.518141
2008-04-17 08:15:01 51°17.323 2°52.161 8.5829 3.355087 31.411723 69.518141
2008-04-17 08:15:06 51°17.323 2°52.163 8.5813 3.35488 31.410379 69.518141
2008-04-17 08:15:11 51°17.322 2°52.165 8.5772 3.354673 31.409843 69.518141
2008-04-17 08:15:16 51°17.32 2°52.168 8.5786 3.354466 31.407692 69.518141
2008-04-17 08:15:21 51°17.319 2°52.17 8.5794 3.354362 31.406617 69.518141
2008-04-17 08:15:26 51°17.318 2°52.172 8.5801 3.354362 31.406617 69.518141
2008-04-17 08:15:31 51°17.316 2°52.174 8.5783 3.354155 31.405273 69.518141
2008-04-17 08:15:36 51°17.315 2°52.176 8.5783 3.354051 31.405005 69.518141
2008-04-17 08:15:40 51°17.313 2°52.178 8.5773 3.353948 31.405543 69.518141
2008-04-17 08:15:46 51°17.311 2°52.18 8.579 3.353844 31.406081 69.518141
2008-04-17 08:15:51 51°17.309 2°52.182 8.5782 3.353741 31.405006 69.518141
2008-04-17 08:15:56 51°17.307 2°52.185 8.5755 3.353741 31.405006 69.518141
2008-04-17 08:16:01 51°17.304 2°52.187 8.5767 3.353637 31.403931 69.518141
2008-04-17 08:16:06 51°17.301 2°52.189 8.5791 3.353637 31.405545 69.518141
2008-04-17 08:16:11 51°17.298 2°52.191 8.5812 3.353534 31.405276 69.518141
2008-04-17 08:16:16 51°17.294 2°52.193 8.5859 3.353534 31.405276 69.518141
2008-04-17 08:16:21 51°17.29 2°52.195 8.5876 3.353534 31.405276 69.518141
2008-04-17 08:16:26 51°17.286 2°52.196 8.5876 3.353534 31.405276 69.518141
2008-04-17 08:16:31 51°17.281 2°52.197 8.5872 3.353534 31.40689 69.518141
2008-04-17 08:16:36 51°17.276 2°52.197 8.588 3.353534 31.40689 69.518141
2008-04-17 08:16:41 51°17.271 2°52.197 8.5916 3.353741 31.408234 69.518141
2008-04-17 08:16:46 51°17.266 2°52.195 8.5893 3.353948 31.408771 69.518141
2008-04-17 08:16:51 51°17.261 2°52.194 8.5907 3.354259 31.410383 69.518141
2008-04-17 08:16:56 51°17.255 2°52.191 8.5904 3.354259 31.410383 69.518141
2008-04-17 08:17:01 51°17.25 2°52.188 8.5881 3.354673 31.41307 69.518141
2008-04-17 08:17:06 51°17.244 2°52.184 8.5909 3.35488 31.4128 69.518141
2008-04-17 08:17:11 51°17.239 2°52.18 8.5915 3.355191 31.415219 69.518141
2008-04-17 08:17:16 51°17.234 2°52.175 8.5928 3.355501 31.417638 69.518141
2008-04-17 08:17:21 51°17.229 2°52.17 8.5911 3.355709 31.418981 69.518141
2008-04-17 08:17:26 51°17.223 2°52.165 8.5921 3.355709 31.418981 69.518141
2008-04-17 08:17:31 51°17.218 2°52.159 8.5924 3.355812 31.419249 69.518141
2008-04-17 08:17:36 51°17.213 2°52.154 8.5902 3.356019 31.4214 69.518141
2008-04-17 08:17:40 51°17.209 2°52.149 8.602 3.356226 31.422743 69.518141
2008-04-17 08:17:46 51°17.202 2°52.143 8.5941 3.356434 31.423279 69.518141
2008-04-17 08:17:51 51°17.197 2°52.137 8.5991 3.356641 31.42543 69.518141
2008-04-17 08:17:56 51°17.192 2°52.132 8.5989 3.356641 31.42543 69.518141
2008-04-17 08:18:01 51°17.186 2°52.126 8.6006 3.356744 31.426505 69.518141
2008-04-17 08:18:06 51°17.181 2°52.122 8.5999 3.356848 31.42758 69.518141
2008-04-17 08:18:11 51°17.176 2°52.117 8.5992 3.356951 31.427848 69.518141
2008-04-17 08:18:16 51°17.171 2°52.113 8.6002 3.357159 31.428384 69.518141
2008-04-17 08:18:21 51°17.166 2°52.108 8.6026 3.357366 31.429727 69.518141
2008-04-17 08:18:26 51°17.161 2°52.105 8.6021 3.357366 31.429727 69.518141
2008-04-17 08:18:31 51°17.157 2°52.101 8.6041 3.357573 31.430263 69.518141
2008-04-17 08:18:36 51°17.152 2°52.098 8.6039 3.357676 31.430531 69.518141
2008-04-17 08:18:41 51°17.148 2°52.094 8.6099 3.35778 31.431606 69.518141
2008-04-17 08:18:46 51°17.143 2°52.091 8.6068 3.357883 31.431874 69.518141
2008-04-17 08:18:51 51°17.139 2°52.088 8.6056 3.358194 31.433484 69.518141
2008-04-17 08:18:56 51°17.135 2°52.085 8.6042 3.358194 31.433484 69.518141
2008-04-17 08:19:01 51°17.131 2°52.081 8.6069 3.358298 31.433752 69.518141
2008-04-17 08:19:06 51°17.127 2°52.079 8.6077 3.358505 31.435095 69.518141
2008-04-17 08:19:11 51°17.123 2°52.076 8.6089 3.358505 31.434288 69.518141
2008-04-17 08:19:16 51°17.119 2°52.073 8.6084 3.358712 31.435631 69.518141
2008-04-17 08:19:21 51°17.116 2°52.07 8.6094 3.358816 31.435899 69.518141
2008-04-17 08:19:26 51°17.112 2°52.067 8.6085 3.358816 31.435899 69.518141
2008-04-17 08:19:31 51°17.109 2°52.064 8.6099 3.358919 31.437781 69.518141
2008-04-17 08:19:36 51°17.106 2°52.061 8.6122 3.358919 31.436973 69.518141
2008-04-17 08:19:41 51°17.102 2°52.059 8.6111 3.359126 31.438316 69.518141
2008-04-17 08:19:46 51°17.099 2°52.056 8.6116 3.35923 31.439391 69.518141
2008-04-17 08:19:51 51°17.096 2°52.053 8.6113 3.359333 31.439659 69.518141
2008-04-17 08:19:56 51°17.093 2°52.05 8.614 3.359333 31.439659 69.518141
2008-04-17 08:20:00 51°17.09 2°52.048 8.6133 3.359437 31.440734 69.518141
2008-04-17 08:20:06 51°17.087 2°52.045 8.6129 3.359541 31.441001 69.518141
2008-04-17 08:20:11 51°17.083 2°52.043 8.6136 3.359748 31.443151 69.518141
2008-04-17 08:20:16 51°17.08 2°52.039 8.6156 3.359955 31.444493 69.518141
2008-04-17 08:20:21 51°17.077 2°52.036 8.6147 3.360265 31.446911 69.518141
2008-04-17 08:20:26 51°17.074 2°52.034 8.6169 3.360265 31.446911 69.518141
2008-04-17 08:20:31 51°17.072 2°52.03 8.6164 3.360369 31.447178 69.518141
2008-04-17 08:20:36 51°17.069 2°52.027 8.6156 3.360576 31.449328 69.518141
2008-04-17 08:20:41 51°17.066 2°52.024 8.6147 3.36068 31.449595 69.518141
2008-04-17 08:20:46 51°17.063 2°52.02 8.6159 3.360887 31.450937 69.518141
2008-04-17 08:20:51 51°17.06 2°52.016 8.6166 3.36099 31.452012 69.518141
2008-04-17 08:20:56 51°17.058 2°52.013 8.618 3.36099 31.452012 69.518141
2008-04-17 08:21:01 51°17.055 2°52.008 8.6151 3.36099 31.451205 69.518141
2008-04-17 08:21:06 51°17.052 2°52.004 8.6164 3.360887 31.449323 69.518141
2008-04-17 08:21:11 51°17.05 2°52 8.6182 3.360887 31.449323 69.518141
2008-04-17 08:21:16 51°17.047 2°51.995 8.6178 3.360887 31.45013 69.518141
2008-04-17 08:21:21 51°17.045 2°51.991 8.6191 3.36099 31.450398 69.518141
2008-04-17 08:21:26 51°17.042 2°51.986 8.6212 3.36099 31.450398 69.518141
2008-04-17 08:21:31 51°17.039 2°51.981 8.619 3.361094 31.450665 69.518141
2008-04-17 08:21:36 51°17.037 2°51.976 8.6208 3.361198 31.452547 69.518141
2008-04-17 08:21:41 51°17.034 2°51.972 8.616 3.361301 31.452815 69.518141
2008-04-17 08:21:46 51°17.031 2°51.967 8.6135 3.361405 31.453889 69.518141
2008-04-17 08:21:51 51°17.028 2°51.962 8.6126 3.361612 31.454424 69.518141
2008-04-17 08:21:56 51°17.025 2°51.957 8.6122 3.361612 31.454424 69.518141
2008-04-17 08:22:01 51°17.022 2°51.952 8.6144 3.361923 31.457648 69.518141
2008-04-17 08:22:06 51°17.02 2°51.947 8.6145 3.36213 31.45899 69.518141
2008-04-17 08:22:11 51°17.016 2°51.943 8.6164 3.36244 31.462214 69.483317
2008-04-17 08:22:16 51°17.013 2°51.938 8.6159 3.362648 31.465978 69.518141
2008-04-17 08:22:21 51°17.01 2°51.933 8.6165 3.362751 31.468668 69.518141
2008-04-17 08:22:26 51°17.007 2°51.928 8.6124 3.362751 31.468668 69.518141
2008-04-17 08:22:31 51°17.004 2°51.924 8.6145 3.362855 31.470551 69.483317
2008-04-17 08:22:36 51°17 2°51.919 8.6135 3.362958 31.471626 69.518141
2008-04-17 08:22:41 51°16.997 2°51.915 8.6121 3.362958 31.471626 69.518141
2008-04-17 08:22:46 51°16.994 2°51.91 8.6145 3.363062 31.471893 69.518141
2008-04-17 08:22:51 51°16.991 2°51.905 8.6151 3.363062 31.471893 69.518141
2008-04-17 08:22:56 51°16.987 2°51.901 8.6191 3.363062 31.471893 69.518141
2008-04-17 08:23:01 51°16.984 2°51.896 8.6202 3.363062 31.472701 69.518141
2008-04-17 08:23:06 51°16.981 2°51.891 8.6213 3.363062 31.472701 69.518141
2008-04-17 08:23:11 51°16.977 2°51.887 8.6219 3.363062 31.473509 69.518141
2008-04-17 08:23:16 51°16.974 2°51.882 8.6213 3.362958 31.472434 69.518141
2008-04-17 08:23:21 51°16.971 2°51.877 8.6202 3.362958 31.471626 69.518141
2008-04-17 08:23:26 51°16.967 2°51.872 8.6198 3.362958 31.471626 69.518141
2008-04-17 08:23:31 51°16.964 2°51.868 8.6222 3.363062 31.471893 69.518141
2008-04-17 08:23:36 51°16.961 2°51.862 8.6241 3.363269 31.471619 69.518141
2008-04-17 08:23:41 51°16.957 2°51.857 8.6234 3.363373 31.471886 69.518141
2008-04-17 08:23:45 51°16.955 2°51.853 8.6215 3.363476 31.472153 69.518141
2008-04-17 08:23:50 51°16.952 2°51.848 8.6229 3.363683 31.474303 69.518141
2008-04-17 08:23:55 51°16.948 2°51.843 8.6228 3.363683 31.474303 69.518141
2008-04-17 08:24:00 51°16.945 2°51.838 8.6215 3.363787 31.475377 69.518141
2008-04-17 08:24:05 51°16.941 2°51.833 8.6196 3.36389 31.475644 69.518141
2008-04-17 08:24:10 51°16.938 2°51.828 8.6176 3.364098 31.476178 69.518141
2008-04-17 08:24:15 51°16.935 2°51.824 8.617 3.364201 31.477253 69.518141
2008-04-17 08:24:20 51°16.932 2°51.818 8.6187 3.364305 31.478328 69.518141
2008-04-17 08:24:26 51°16.928 2°51.812 8.6183 3.364305 31.478328 69.518141
2008-04-17 08:24:31 51°16.924 2°51.807 8.6179 3.364615 31.481552 69.518141
2008-04-17 08:24:35 51°16.922 2°51.803 8.6159 3.364823 31.483701 69.518141
2008-04-17 08:24:40 51°16.918 2°51.798 8.6169 3.364926 31.485583 69.518141
2008-04-17 08:24:46 51°16.914 2°51.792 8.6193 3.36503 31.487466 69.483317
2008-04-17 08:24:51 51°16.911 2°51.787 8.6215 3.365237 31.490424 69.483317
2008-04-17 08:24:55 51°16.908 2°51.783 8.6196 3.365237 31.490424 69.483317
2008-04-17 08:25:00 51°16.905 2°51.778 8.6201 3.36534 31.491499 69.518141
2008-04-17 08:25:06 51°16.901 2°51.772 8.621 3.365548 31.493648 69.483317
2008-04-17 08:25:11 51°16.897 2°51.767 8.6224 3.365755 31.496606 69.518141
2008-04-17 08:25:15 51°16.895 2°51.763 8.6226 3.365858 31.496873 69.518141
2008-04-17 08:25:20 51°16.892 2°51.758 8.6255 3.365962 31.497947 69.483317
2008-04-17 08:25:25 51°16.888 2°51.753 8.6267 3.365962 31.497947 69.483317
2008-04-17 08:25:31 51°16.884 2°51.747 8.6271 3.366169 31.49848 69.518141
2008-04-17 08:25:35 51°16.882 2°51.743 8.623 3.366273 31.499555 69.483317
2008-04-17 08:25:40 51°16.878 2°51.738 8.6202 3.366376 31.499822 69.518141
2008-04-17 08:25:45 51°16.875 2°51.733 8.6196 3.36648 31.500088 69.483317
2008-04-17 08:25:50 51°16.872 2°51.728 8.6212 3.366687 31.501429 69.518141
2008-04-17 08:25:55 51°16.869 2°51.722 8.6218 3.366687 31.501429 69.518141
2008-04-17 08:26:00 51°16.866 2°51.717 8.6216 3.366894 31.50277 69.518141
2008-04-17 08:26:05 51°16.862 2°51.712 8.62 3.366998 31.503845 69.483317
2008-04-17 08:26:10 51°16.859 2°51.707 8.6198 3.366894 31.503579 69.518141
2008-04-17 08:26:15 51°16.856 2°51.702 8.6206 3.366687 31.503046 69.483317
2008-04-17 08:26:20 51°16.853 2°51.697 8.6185 3.366687 31.503046 69.518141
2008-04-17 08:26:25 51°16.85 2°51.692 8.6182 3.366687 31.503046 69.518141
2008-04-17 08:26:31 51°16.846 2°51.687 8.6159 3.366583 31.50278 69.483317
2008-04-17 08:26:35 51°16.843 2°51.682 8.6166 3.36648 31.501705 69.483317
2008-04-17 08:26:40 51°16.84 2°51.678 8.6158 3.366376 31.50063 69.518141
2008-04-17 08:26:46 51°16.836 2°51.672 8.6164 3.366273 31.500364 69.518141
2008-04-17 08:26:51 51°16.833 2°51.667 8.6225 3.366065 31.498214 69.483317
2008-04-17 08:26:55 51°16.83 2°51.663 8.6223 3.366065 31.498214 69.483317
2008-04-17 08:27:00 51°16.827 2°51.658 8.6208 3.365962 31.498756 69.483317
2008-04-17 08:27:06 51°16.823 2°51.652 8.6217 3.365755 31.496606 69.483317
2008-04-17 08:27:11 51°16.82 2°51.648 8.6219 3.365651 31.49634 69.483317
2008-04-17 08:27:15 51°16.817 2°51.644 8.6217 3.365444 31.49419 69.518141
2008-04-17 08:27:20 51°16.814 2°51.639 8.6211 3.365444 31.493382 69.518141
2008-04-17 08:27:25 51°16.811 2°51.634 8.6234 3.365444 31.493382 69.518141
2008-04-17 08:27:31 51°16.807 2°51.628 8.622 3.365444 31.492573 69.483317
2008-04-17 08:27:35 51°16.804 2°51.624 8.6241 3.365548 31.49284 69.518141
2008-04-17 08:27:40 51°16.801 2°51.62 8.6225 3.365548 31.49284 69.518141
2008-04-17 08:27:45 51°16.798 2°51.615 8.6212 3.365548 31.49284 69.518141
2008-04-17 08:27:51 51°16.794 2°51.609 8.6209 3.365548 31.492032 69.518141
2008-04-17 08:27:55 51°16.791 2°51.606 8.6193 3.365548 31.492032 69.518141
2008-04-17 08:28:00 51°16.788 2°51.6 8.618 3.365548 31.492032 69.518141
2008-04-17 08:28:05 51°16.785 2°51.596 8.6203 3.365651 31.493107 69.518141
2008-04-17 08:28:11 51°16.781 2°51.59 8.6231 3.365651 31.492298 69.483317
2008-04-17 08:28:15 51°16.779 2°51.586 8.6234 3.365755 31.494181 69.483317
2008-04-17 08:28:20 51°16.776 2°51.582 8.6245 3.365755 31.494181 69.483317
2008-04-17 08:28:25 51°16.773 2°51.576 8.6263 3.365755 31.494181 69.483317
2008-04-17 08:28:30 51°16.769 2°51.572 8.6254 3.365755 31.49499 69.483317
2008-04-17 08:28:36 51°16.765 2°51.566 8.6276 3.365755 31.49499 69.483317
2008-04-17 08:28:40 51°16.763 2°51.562 8.6263 3.365858 31.496064 69.518141
2008-04-17 08:28:46 51°16.759 2°51.556 8.6277 3.365962 31.496331 69.483317
2008-04-17 08:28:51 51°16.756 2°51.551 8.6263 3.366065 31.496597 69.518141
2008-04-17 08:28:55 51°16.753 2°51.547 8.626 3.366065 31.496597 69.518141
2008-04-17 08:29:00 51°16.751 2°51.542 8.6268 3.366169 31.496056 69.518141
2008-04-17 08:29:06 51°16.746 2°51.536 8.6253 3.366273 31.49713 69.518141
2008-04-17 08:29:11 51°16.743 2°51.531 8.6268 3.36648 31.498472 69.518141
2008-04-17 08:29:15 51°16.741 2°51.527 8.6266 3.36648 31.497663 69.518141
2008-04-17 08:29:20 51°16.738 2°51.522 8.6253 3.366583 31.498738 69.518141
2008-04-17 08:29:26 51°16.734 2°51.516 8.626 3.366583 31.498738 69.518141
2008-04-17 08:29:31 51°16.731 2°51.511 8.6258 3.366687 31.499813 69.483317
2008-04-17 08:29:35 51°16.728 2°51.507 8.6273 3.366687 31.499813 69.518141
2008-04-17 08:29:40 51°16.725 2°51.503 8.6279 3.366583 31.499546 69.518141
2008-04-17 08:29:45 51°16.722 2°51.497 8.6314 3.366583 31.499546 69.483317
2008-04-17 08:29:51 51°16.718 2°51.491 8.6303 3.366583 31.499546 69.518141
2008-04-17 08:29:55 51°16.715 2°51.488 8.6321 3.366583 31.499546 69.518141
2008-04-17 08:30:00 51°16.712 2°51.483 8.6292 3.366583 31.499546 69.518141
2008-04-17 08:30:05 51°16.709 2°51.477 8.6287 3.366583 31.498738 69.518141
2008-04-17 08:30:11 51°16.705 2°51.472 8.6288 3.366583 31.49793 69.518141
2008-04-17 08:30:15 51°16.703 2°51.468 8.6296 3.366583 31.497122 69.518141
2008-04-17 08:30:20 51°16.7 2°51.463 8.6302 3.366687 31.497388 69.518141
2008-04-17 08:30:25 51°16.697 2°51.458 8.6308 3.366687 31.497388 69.518141
2008-04-17 08:30:30 51°16.694 2°51.453 8.6326 3.36679 31.497655 69.483317
2008-04-17 08:30:35 51°16.69 2°51.448 8.6289 3.36679 31.498463 69.518141
2008-04-17 08:30:40 51°16.688 2°51.443 8.6322 3.36679 31.498463 69.483317
2008-04-17 08:30:45 51°16.684 2°51.438 8.63 3.36679 31.498463 69.483317
2008-04-17 08:30:51 51°16.681 2°51.432 8.63 3.36679 31.498463 69.483317
2008-04-17 08:30:55 51°16.678 2°51.428 8.6306 3.36679 31.498463 69.483317
2008-04-17 08:31:00 51°16.675 2°51.423 8.6322 3.366894 31.499537 69.518141
2008-04-17 08:31:06 51°16.672 2°51.417 8.632 3.366998 31.498996 69.518141
2008-04-17 08:31:11 51°16.669 2°51.412 8.6301 3.367101 31.50007 69.483317
2008-04-17 08:31:15 51°16.666 2°51.408 8.63 3.366376 31.492549 69.483317
2008-04-17 08:31:20 51°16.663 2°51.404 8.63 3.366998 31.498996 69.483317
2008-04-17 08:31:26 51°16.66 2°51.398 8.6307 3.366998 31.498996 69.483317
2008-04-17 08:31:31 51°16.657 2°51.393 8.631 3.367515 31.504368 69.483317
2008-04-17 08:31:35 51°16.655 2°51.389 8.6317 3.367619 31.504635 69.483317
2008-04-17 08:31:40 51°16.652 2°51.384 8.6302 3.36793 31.507858 69.483317
2008-04-17 08:31:46 51°16.649 2°51.378 8.6298 3.367826 31.507592 69.483317
2008-04-17 08:31:51 51°16.646 2°51.373 8.63 3.368137 31.510816 69.483317
2008-04-17 08:31:55 51°16.645 2°51.369 8.6311 3.368137 31.510816 69.483317
2008-04-17 08:32:00 51°16.643 2°51.364 8.6315 3.368137 31.510816 69.483317
2008-04-17 08:32:06 51°16.641 2°51.357 8.6305 3.367723 31.505709 69.483317
2008-04-17 08:32:11 51°16.639 2°51.352 8.6315 3.368344 31.512157 69.483317
2008-04-17 08:32:15 51°16.638 2°51.348 8.6328 3.368655 31.516189 69.483317
2008-04-17 08:32:20 51°16.637 2°51.342 8.6342 3.368862 31.518338 69.483317
2008-04-17 08:32:25 51°16.635 2°51.337 8.6351 3.368862 31.518338 69.483317
2008-04-17 08:32:30 51°16.635 2°51.332 8.6351 3.368758 31.517264 69.483317
2008-04-17 08:32:35 51°16.634 2°51.327 8.6386 3.368655 31.516189 69.483317